[{"header": {"dx": 0.06612293990616946, "dy": 0.0552356325346848, "nx": 98, "ny": 59, "la1": 35.046912555036876, "la2": 31.78801023549047, "lo1": -121.43107172385933, "lo2": -114.95102361305473, "refTime": "2026041610", "parameterCategory": 1, "parameterNumber": 2}, "data": [8.73, 8.73, 8.48, 8.87, 8.74, 7.74, 8.28, 8.2, 8.43, 7.92, 6.64, 5.6, 5.15, 2.54, 0.0, -1.91, -4.32, -5.75, -8.22, -9.77, -11.12, -12.04, -11.4, -11.18, -10.84, -11.03, -10.04, -6.94, -6.7, -3.82, 0.0, 9.17, 12.52, 11.18, 10.28, 9.83, 9.39, 9.32, 9.11, 9.97, 9.54, 10.46, 10.68, 10.24, 12.17, 14.49, 17.32, 19.33, 16.34, 13.86, 2.02, 5.81, 8.83, 11.06, 11.06, 11.69, 12.65, 13.02, 13.38, 13.39, 13.39, 13.62, 13.19, 11.9, 11.53, 11.72, 12.36, 12.36, 12.94, 13.97, 14.17, 13.99, 13.02, 11.06, 10.02, 11.06, 12.45, 12.79, 14.47, -14.75, -13.28, -11.99, -12.96, -11.2, -10.04, -11.03, -10.8, -5.0, 3.53, 8.94, 10.61, 11.16, 11.35, 12.45, 12.74, 12.79, 11.8, 12.04, 8.73, 8.73, 9.02, 8.56, 8.4, 8.25, 8.53, 8.05, 8.65, 8.18, 7.44, 7.69, 7.78, 7.51, 4.1, 0.0, -2.1, -5.4, -8.53, -8.82, -10.3, -10.79, -12.71, -12.96, -10.73, -10.84, -11.62, -11.45, -10.04, -6.94, -4.52, 0.0, 12.52, 9.83, 7.81, 8.94, 8.05, 8.89, 9.16, 9.63, 11.2, 11.64, 10.37, 10.81, 13.35, 15.95, 18.34, 16.09, 12.98, 2.43, 5.81, 8.83, 11.54, 11.44, 10.75, 11.69, 12.65, 12.65, 13.38, 13.56, 13.39, 13.19, 12.27, 11.35, 11.35, 10.82, 11.57, 11.9, 12.94, 13.97, 14.36, 14.13, 13.39, 10.75, 8.43, 10.43, 11.93, 12.79, 14.47, -14.75, -13.28, -11.99, -12.96, -11.2, -10.04, -11.03, -10.8, -5.0, 3.53, 8.94, 10.61, 11.16, 11.35, 12.45, 12.74, 12.79, 11.8, 12.04, 8.73, 8.73, 8.73, 8.27, 8.87, 8.4, 8.03, 8.53, 8.83, 8.4, 7.69, 5.57, 7.19, 8.53, 9.3, 9.67, 6.45, 0.0, -6.21, -9.17, -8.75, -10.19, -9.62, -11.99, -13.86, -10.41, -10.41, -10.73, -9.3, -8.22, -8.85, -6.8, -6.4, 11.18, 8.49, 8.94, 8.43, 8.77, 9.13, 9.97, 9.27, 10.78, 12.64, 13.71, 15.39, 15.95, 13.46, 12.56, 9.22, 8.83, 10.75, 11.54, 11.54, 12.16, 10.43, 12.0, 12.82, 13.13, 12.99, 13.39, 13.39, 12.07, 11.35, 10.36, 10.3, 10.63, 11.33, 11.94, 11.94, 12.98, 13.39, 13.71, 13.27, 12.16, 10.43, 12.27, 13.59, 13.92, 13.67, 14.75, -10.12, -9.48, -12.71, -12.07, -11.62, -11.62, -11.18, 0.0, 6.2, 10.41, 12.27, 12.09, 11.52, 11.52, 11.9, 12.33, 12.46, 12.39, 8.46, 8.46, 8.73, 8.8, 8.56, 8.65, 8.51, 8.99, 8.29, 8.57, 7.89, 5.93, 5.6, 6.45, 6.97, 9.3, 9.3, 9.66, 0.0, -8.53, -8.49, -8.73, -9.09, -9.16, -11.03, -12.96, -10.28, -9.83, -9.33, -6.2, -4.75, -6.2, -8.68, -3.79, 3.96, 8.58, 8.82, 9.32, 8.94, 9.85, 11.7, 13.59, 13.51, 12.72, 11.52, 11.41, 13.77, 12.79, 12.27, 12.65, 12.65, 12.65, 11.8, 11.1, 11.1, 11.03, 12.45, 12.74, 12.99, 12.99, 13.19, 11.72, 10.12, 9.27, 9.32, 10.43, 11.06, 11.06, 12.33, 13.41, 13.88, 13.64, 13.74, 12.27, 13.28, 13.59, 14.75, 15.07, 14.75, 13.59, -9.48, -9.48, -12.96, -11.62, -11.18, -11.62, 12.07, 10.4, 7.9, 11.53, 12.82, 12.09, 11.28, 11.5, 12.96, 11.99, 12.79, 12.52, 8.46, 8.46, 8.73, 8.52, 8.27, 8.56, 8.97, 8.86, 8.5, 8.18, 7.79, 6.21, 5.4, 5.2, 5.0, 5.2, 7.26, 9.67, 6.97, -4.48, -10.79, -10.73, -9.97, -10.09, -9.38, -11.09, -11.2, -11.45, -5.0, 0.0, 0.0, -3.53, -4.81, -3.96, 1.58, 6.4, 8.06, 9.8, 10.65, 11.19, 11.62, 11.14, 11.42, 13.02, 13.8, 13.8, 13.88, 13.88, 13.86, 13.84, 13.19, 12.79, 11.9, 11.1, 11.1, 12.09, 12.95, 12.95, 12.99, 12.99, 12.56, 10.94, 9.21, 9.34, 9.44, 11.18, 11.48, 11.18, 11.93, 14.71, 16.37, 15.63, 15.54, 14.71, 14.3, 12.96, 13.67, 14.23, 13.82, 12.72, -12.96, -12.96, -8.53, -11.18, -11.18, -10.4, 11.45, 11.03, 10.73, 12.82, 12.27, 11.6, 12.52, -0.0, -0.0, 8.05, 12.83, 12.52, 8.46, 8.46, 8.46, 8.52, 8.8, 8.56, 8.65, 9.07, 8.39, 8.61, 7.44, 6.29, 7.02, 5.98, 5.0, 5.0, 4.4, 6.45, 7.9, 0.0, -8.69, -9.34, -11.37, -11.64, -10.87, -9.27, -8.53, -6.21, -2.54, 0.0, 3.11, 2.49, 0.0, -0.82, 0.75, 3.57, 5.28, 8.66, 10.34, 8.84, 7.51, 10.86, 12.66, 14.26, 14.3, 14.72, 14.75, 14.26, 13.7, 13.28, 12.87, 12.66, 11.75, 10.86, 11.8, 12.65, 13.19, 13.19, 12.95, 12.79, 11.88, 9.48, 8.46, 8.94, 10.19, 11.48, 11.73, 11.7, 12.01, 16.37, 19.59, 17.99, 15.54, 15.92, 16.39, 15.58, 13.41, 12.79, 12.96, 12.04, -8.53, -5.2, -5.0, -10.4, -9.3, 0.0, 7.54, 11.5, 12.45, 12.27, 11.6, 13.41, -0.0, -7.19, -0.0, 13.41, 12.86, 12.27, 8.46, 8.46, 8.46, 8.52, 8.52, 8.8, 8.35, 8.97, 8.83, 8.26, 6.87, 5.75, 6.76, 7.9, 8.53, 6.44, 5.75, 6.45, 6.97, 4.4, -6.5, -10.24, -9.8, -8.42, -8.85, -6.76, -5.64, -3.82, -3.04, -2.6, 0.0, 6.95, 8.18, 4.2, 2.94, 2.92, 3.68, 8.05, 8.82, 6.17, 6.21, 6.43, 9.31, 12.0, 13.74, 14.81, 15.99, 13.59, 12.39, 12.74, 13.75, 12.03, 11.64, 12.0, 12.13, 12.11, 12.5, 12.5, 12.79, 12.62, 11.16, 8.73, 10.01, 9.88, 10.15, 11.7, 12.63, 12.7, 13.02, 16.24, 19.25, 18.26, 15.39, 15.49, 16.3, 16.12, 14.75, 13.09, 12.72, 12.94, 8.22, 0.0, -1.98, -4.48, -1.98, 1.55, 6.73, 10.69, 12.07, 10.91, 11.16, -9.48, -11.16, -11.16, 13.41, 12.71, 11.72, 11.45, 8.25, 8.25, 8.25, 8.25, 8.52, 8.8, 8.87, 8.94, 8.83, 8.43, 6.57, 5.0, 5.77, 8.22, 9.42, 8.58, 9.08, 8.53, 7.65, 8.82, 10.0, 0.0, -7.02, -8.45, -7.89, -4.9, -4.48, -4.65, -5.64, -5.0, -3.07, 0.0, 2.71, 6.7, 6.2, 4.62, 3.29, 5.75, 9.62, 7.26, 5.0, 5.99, 6.08, 7.69, 10.43, 11.38, 8.05, 11.38, 11.2, 11.9, 11.62, 11.5, 11.28, 11.28, 11.75, 11.75, 12.11, 12.39, 12.21, 11.6, 10.04, 9.48, 9.73, 10.18, 10.47, 12.78, 14.57, 14.3, 14.18, 15.34, 17.42, 17.86, 15.93, 15.61, 15.17, 14.65, 13.65, 12.45, 12.21, 14.09, 13.83, 2.72, 0.0, 0.0, 1.38, 4.98, 6.9, 8.83, 10.37, 10.37, -12.96, -12.3, -11.16, -9.8, 13.41, 11.87, 11.09, 10.4, 8.25, 8.25, 8.25, 8.25, 8.52, 8.52, 8.58, 8.64, 9.01, 8.12, 6.99, 5.4, 4.55, 5.08, 6.4, 7.73, 9.27, 9.16, 8.82, 8.59, 10.84, 11.62, 11.62, -2.37, -6.48, -5.6, -3.87, -6.44, -7.95, -4.8, -1.16, 0.0, 0.0, 3.82, 5.0, 5.45, 4.23, 4.23, 8.22, 10.6, 11.2, 8.85, 10.01, 11.16, 6.4, 2.72, 7.2, 10.19, 11.38, 10.75, 11.52, 9.17, 10.3, 11.28, 11.09, 11.53, 12.39, 11.97, 11.55, 11.34, 10.94, 10.75, 9.49, 8.68, 10.3, 13.59, 15.87, 15.41, 14.55, 14.64, 15.83, 16.37, 16.5, 15.65, 14.75, 14.3, 13.81, 12.83, 13.32, 15.13, 15.01, 8.38, -1.58, 0.0, 3.04, 4.39, 5.8, 8.3, 8.85, 12.96, -11.6, -12.3, -12.96, 13.41, 13.01, 11.87, 10.88, 10.48, 8.04, 8.25, 8.25, 8.25, 8.25, 8.52, 8.58, 8.64, 8.47, 8.12, 7.17, 6.45, 6.07, 4.7, 4.1, 4.28, 5.8, 5.36, 4.24, 4.4, 3.39, 5.0, 10.4, 11.03, -2.71, -6.98, -4.88, -6.97, -7.69, -3.47, 0.0, 0.0, 0.0, 0.0, 1.44, 4.32, 7.59, 6.98, 11.62, 3.96, 8.53, 12.52, 12.07, 8.22, 5.2, 6.67, 6.9, 7.36, 10.02, 8.29, 8.57, 9.6, 10.86, 11.09, 11.09, 12.79, 13.02, 11.71, 10.84, 12.08, 12.51, 9.61, 9.67, 7.98, 9.35, 13.24, 15.99, 14.94, 13.32, 14.3, 14.75, 15.65, 16.09, 16.09, 15.65, 13.83, 13.23, 11.28, 11.86, 14.29, 15.2, 16.54, 0.0, -2.57, 0.0, 3.25, 6.2, 7.69, 13.41, -0.0, 12.96, 12.52, -5.6, 0.0, 10.37, 11.5, 11.2, 10.87, 8.04, 8.04, 8.25, 8.25, 8.25, 8.52, 8.3, 8.14, 8.19, 8.53, 7.88, 7.88, 7.88, 6.95, 5.16, 3.94, 4.05, 4.73, 4.24, 3.04, 1.2, 0.0, 0.0, 8.85, 12.96, -8.93, -6.17, -5.06, -5.1, -2.45, 0.0, 1.93, 0.0, -1.62, -2.39, 1.91, 8.22, 11.03, 5.2, 3.96, 5.8, -0.0, -0.0, -0.0, 5.2, 4.32, 5.4, 6.94, 7.19, 6.65, 8.57, 12.22, 12.87, 14.07, 14.07, 15.54, 16.05, 13.82, 9.83, 13.01, 8.65, 7.26, 6.72, 7.2, 7.2, 12.64, 15.99, 16.34, 14.61, 12.52, 13.63, 14.47, 15.85, 15.82, 14.94, 13.21, 11.03, 9.81, 12.79, 13.97, 14.64, 15.62, 16.09, 0.0, 16.09, 14.75, 15.2, 15.2, 10.12, 13.41, 12.52, 0.0, 0.0, 0.0, 7.54, 10.55, 10.99, 10.79, 8.04, 8.04, 8.25, 8.25, 8.25, 8.74, 8.78, 8.14, 8.41, 8.24, 8.28, 7.82, 8.35, 8.18, 7.93, 6.67, 5.2, 4.86, 4.43, 2.85, 1.02, -1.83, -8.58, -15.65, -6.0, -8.85, -12.07, -6.01, -10.73, -2.6, -2.19, -9.6, -5.95, -10.28, -7.27, -2.1, 0.0, -11.62, -11.62, -5.4, -5.6, -7.24, -8.22, -5.2, -0.0, 2.49, 6.7, 8.85, 9.17, 11.53, 13.28, 15.36, 18.05, 19.52, 18.24, 18.91, 19.88, 18.71, 12.07, 3.36, -0.0, 5.27, 5.51, 3.49, 3.49, 10.19, 16.71, 18.68, 19.08, 16.99, 14.47, 13.44, 13.99, 14.28, 12.3, 10.52, 10.95, 12.95, 13.02, 13.02, 14.07, 15.71, 16.99, 17.88, 18.78, 19.22, 17.43, 15.2, 14.75, 13.86, 12.52, 0.0, 0.0, 0.0, 5.6, 9.84, 10.55, 10.12, 8.04, 8.04, 8.04, 8.0, 8.0, 8.74, 8.78, 8.56, 8.14, 8.19, 8.24, 8.53, 8.53, 8.58, 8.96, 8.78, 8.44, 7.19, 6.0, 4.38, 2.81, 0.0, -14.42, -14.31, -12.79, -9.8, -8.05, -5.8, -4.75, -8.8, -11.18, -10.38, -8.58, -8.23, -9.97, -10.28, -10.28, -11.18, -11.18, -10.0, -8.22, -8.22, -8.94, -6.95, -4.6, -0.0, 8.22, 12.07, 12.96, 13.01, 11.62, 12.45, 13.15, 13.59, 16.12, 18.08, 20.12, 22.12, 16.09, -5.4, -2.0, 3.59, 1.93, -0.0, -0.0, 5.53, 13.41, 17.7, 20.46, 20.37, 20.54, 20.72, 14.11, 10.68, 8.6, 10.58, 13.62, 14.71, 14.79, 15.36, 15.27, 15.36, 15.41, 16.05, 16.99, 18.78, 19.29, 17.35, 16.09, 14.3, 13.86, 10.4, 0.0, 0.0, 5.6, 9.17, 10.12, 9.48, 8.04, 8.04, 8.0, 8.0, 8.0, 8.74, 8.52, 8.56, 8.36, 8.41, 8.24, 8.53, 8.53, 8.53, 9.02, 9.17, 9.48, 9.48, 8.59, 7.69, 7.93, 8.94, 4.66, -14.75, -14.3, -13.88, -11.88, -10.82, -10.3, -10.19, -9.6, -10.52, -10.84, -9.33, -9.33, -9.83, -9.83, -10.28, -9.97, -8.58, -8.58, -8.23, -8.93, -7.27, -4.4, -4.6, -0.0, 11.18, 8.22, 8.85, 8.85, 8.53, 7.54, 7.24, 8.85, 10.01, 14.84, 19.22, 21.46, -0.0, -6.2, -0.0, -0.0, -0.0, -0.0, -0.0, 6.47, 11.73, 15.17, 15.01, 14.55, 15.8, 17.02, 9.2, 9.3, 12.9, 15.2, 17.43, 16.99, 16.99, 16.12, 13.23, 13.02, 13.34, 15.39, 16.47, 17.46, 17.02, 15.59, 16.54, 14.3, 11.18, 7.9, 5.6, 6.44, 6.67, 9.17, 0.0, 8.04, 7.8, 8.0, 8.0, 8.0, 8.69, 8.74, 8.78, 8.56, 8.6, 8.64, 8.68, 8.68, 8.68, 8.72, 8.86, 9.19, 9.8, 10.18, 9.8, 9.92, 10.82, 11.64, 10.12, 0.0, -13.86, -13.44, -12.87, -11.99, -11.64, -11.5, -9.75, -11.18, -10.28, -10.28, -10.28, -10.73, -9.83, -10.6, -7.87, -8.23, -8.58, -8.18, -6.95, -6.95, -4.4, -4.4, -7.27, 10.73, 11.18, 8.22, 9.3, 10.18, 9.39, 9.83, 10.73, 5.2, 11.75, 18.25, 5.51, -5.8, -9.17, -4.38, -4.52, -6.6, -0.0, 16.54, 15.19, 8.93, 9.0, 14.54, 17.85, 20.16, 10.41, 8.38, 14.79, 17.1, 14.3, 15.77, 16.99, 15.59, 12.01, 11.88, 11.37, 10.79, 13.29, 14.56, 15.87, 16.09, 16.54, 16.99, 13.41, 11.28, 10.41, 11.16, 9.17, 0.0, 0.0, 8.04, 7.8, 8.0, 8.0, 8.0, 8.69, 8.74, 8.74, 8.56, 8.6, 8.64, 8.68, 8.68, 8.43, 8.83, 9.22, 9.5, 9.17, 9.8, 10.52, 10.58, 10.91, 11.53, 11.64, 10.43, 0.0, -13.86, -13.15, -12.45, -11.99, -12.89, -11.45, -10.08, -10.73, -10.28, -8.0, -9.75, -8.55, -7.59, -8.23, -7.51, -7.81, -9.2, -6.95, -6.95, -6.64, -6.95, -7.27, -4.6, -7.27, 11.18, 11.62, 8.22, -0.0, -0.0, 9.83, 4.6, 9.67, 14.75, 4.95, -0.0, -8.22, -8.22, -8.53, 12.07, 12.96, 0.0, 15.2, 5.09, 11.8, 18.4, 18.78, 17.43, 4.55, 0.0, 8.2, 9.89, 13.28, 15.72, 17.02, 18.33, 15.25, 13.59, 13.19, 11.71, 10.6, 12.72, 12.79, 12.96, 13.86, 15.65, 12.58, 12.58, 13.41, 12.52, 11.45, 11.2, 11.2, 8.04, 7.8, 8.0, 8.0, 8.0, 8.2, 8.69, 8.74, 8.78, 8.83, 8.64, 8.93, 8.68, 8.43, 8.57, 9.22, 9.21, 9.21, 9.17, 9.8, 10.13, 10.47, 10.55, 11.53, 11.9, 11.9, 12.27, 10.43, -14.75, -14.3, -13.15, -12.3, -10.38, -10.0, -7.44, -8.4, -9.13, -9.6, -8.55, -7.87, -8.8, -8.48, -8.55, -7.44, -6.95, -6.95, -7.27, -7.27, -7.27, -4.6, -4.6, -4.8, -0.0, -0.0, -0.0, 10.28, 10.28, 7.59, -0.0, -0.0, -0.0, -7.9, -9.6, -9.6, -7.59, 10.28, 11.62, 0.0, 13.86, 17.43, 21.25, 15.25, 0.0, -7.8, -16.96, -3.68, 4.66, 9.55, 11.43, 8.4, 9.2, 14.51, 16.99, 14.42, 14.3, 11.62, 12.07, 12.96, 13.41, 13.67, 14.64, 13.23, 12.27, 12.71, 12.71, 11.84, 11.2, 11.2, 8.04, 8.04, 8.0, 8.0, 8.0, 8.2, 8.69, 8.74, 8.78, 8.56, 8.6, 8.64, 8.68, 9.12, 8.85, 8.86, 9.21, 9.5, 9.5, 9.17, 9.48, 10.41, 10.81, 11.42, 12.38, 13.44, 14.11, 13.97, 12.16, 6.8, -14.75, -13.15, -11.87, -10.0, -8.93, -9.2, -9.33, -10.08, -9.54, -9.83, -9.83, -9.83, -9.33, -9.75, -9.2, -7.27, -7.59, -9.2, -7.27, -4.6, -4.6, -0.0, -0.0, -0.0, -0.0, 7.27, 4.6, 4.8, 7.9, 11.18, 12.07, -0.0, -9.6, -7.59, -7.59, -6.95, -4.2, 4.6, 4.48, 9.39, 9.0, -8.8, -10.91, -12.87, -17.43, -8.74, -0.0, 9.12, 11.28, 11.27, 11.16, 13.96, 15.99, 13.41, 12.52, 8.85, 9.17, 12.96, 11.99, 13.57, 13.75, 12.79, 11.03, 11.21, 12.71, 12.71, 12.27, 12.27, 8.04, 8.04, 7.8, 7.8, 8.0, 8.0, 8.69, 8.74, 9.01, 8.78, 8.6, 8.88, 9.07, 8.83, 8.46, 8.46, 8.87, 9.5, 9.19, 9.42, 10.65, 12.05, 10.82, 10.59, 10.19, 12.39, 11.12, 11.53, 10.73, 8.66, 0.0, -12.96, -12.27, -10.8, -9.7, -9.8, -10.12, -10.73, -11.18, -10.73, -9.83, -10.28, -11.18, -11.18, -11.62, -10.73, -7.59, -7.27, -7.27, -4.6, -3.25, -0.0, -0.0, -0.0, -0.0, 3.25, 7.27, 10.0, 12.07, 11.62, 11.62, -0.0, -7.9, -5.46, -6.14, -6.64, -5.21, 10.28, 8.38, 11.9, 17.53, 19.99, 23.15, 24.59, 16.99, -0.0, 7.2, 15.36, 15.61, 15.59, 16.12, 17.2, 16.09, 5.6, 4.24, 3.25, 4.98, 7.19, 10.47, 9.48, 12.27, 12.72, 11.45, 9.97, 11.88, 13.28, 12.87, 12.87, 8.04, 8.04, 8.04, 7.8, 8.0, 8.0, 8.48, 8.74, 9.2, 9.24, 8.83, 8.6, 9.07, 9.09, 8.83, 8.22, 8.87, 8.23, 8.01, 8.85, 10.99, 12.32, 11.8, 9.8, 7.96, 8.54, 8.44, 8.91, 8.51, 6.87, 2.06, -3.96, -12.07, -11.21, -11.18, -10.41, -10.52, -10.73, -10.73, -10.28, -10.73, -10.65, -10.75, -10.6, -10.84, -11.62, -9.2, -7.27, -7.27, -6.95, -3.11, -3.25, -0.0, -0.0, -0.0, 3.11, 7.9, 10.18, 10.73, 11.62, 11.18, -7.59, -7.59, -5.95, -7.27, -7.27, -7.27, -0.0, 11.84, 13.09, 16.12, 18.87, 23.54, 26.26, 20.83, 12.71, 7.2, 10.3, 15.9, 16.99, 15.65, 16.54, 14.99, 7.44, 3.36, 2.63, 4.24, 4.81, 7.19, 5.6, 6.0, 10.47, 10.12, 10.12, 8.66, 10.75, 12.65, 12.65, 8.04, 8.04, 8.04, 8.04, 7.8, 8.27, 8.48, 8.48, 9.2, 9.48, 9.28, 9.04, 9.07, 9.09, 9.48, 9.22, 8.86, 8.23, 6.94, 7.63, 9.67, 11.07, 11.39, 10.75, 9.66, 8.31, 6.98, 6.21, 5.4, 4.72, 2.82, 0.0, -8.22, -11.62, -11.4, -11.02, -11.18, -10.73, -10.73, -11.11, -11.09, -10.84, -10.27, -10.04, -9.3, -10.8, -8.8, -7.27, -7.27, -5.7, -3.11, -3.25, -3.39, -0.0, -0.0, 3.25, 5.0, 6.2, 11.62, -11.18, -10.0, -9.3, -8.93, -9.3, -8.55, -8.93, -4.8, -0.0, 9.17, 9.8, 11.63, 15.72, 22.17, 24.99, 19.23, 11.66, 8.0, 9.37, 9.17, 10.75, 15.04, 15.65, 14.75, 13.41, 13.86, 6.0, 0.0, 0.0, 9.48, 7.24, 3.96, 6.0, 8.94, 6.9, 4.38, 7.59, 9.22, 9.22, 7.84, 8.04, 8.04, 8.04, 8.27, 8.27, 8.27, 8.48, 9.2, 9.24, 9.28, 9.04, 8.79, 8.81, 9.48, 9.49, 9.5, 8.59, 8.59, 9.14, 9.44, 9.5, 9.16, 9.46, 9.42, 9.31, 8.58, 6.67, 4.9, 3.82, 2.62, 1.64, 0.0, -10.4, -11.62, -11.18, -11.62, -11.62, -11.18, -11.06, -10.75, -10.0, -9.3, -8.53, -6.98, -7.59, -7.59, -6.95, -3.25, -3.25, -3.25, -3.39, -3.39, -3.53, -0.0, -0.0, -0.0, -0.0, -8.22, -10.73, -9.75, -7.59, -7.9, -7.9, -6.2, -5.0, -5.2, -0.0, -0.0, 2.89, 4.95, 14.22, 20.47, 22.9, 2.7, 3.73, 6.59, 7.63, 6.64, 5.5, 9.77, 16.54, 14.39, 10.75, 8.94, 8.05, 9.48, 13.57, 14.75, 9.66, 5.4, 4.24, 6.4, 6.4, 2.81, 5.31, 7.59, 7.59, 7.84, 7.84, 7.84, 8.52, 8.52, 8.27, 8.27, 8.27, 8.97, 9.24, 9.0, 9.04, 8.79, 9.47, 9.48, 9.49, 9.22, 9.21, 9.5, 10.13, 10.44, 9.8, 8.87, 8.24, 8.15, 9.08, 9.36, 8.66, 6.3, 4.39, 4.24, 3.19, 2.28, 0.0, -8.22, -10.4, -11.03, -11.28, -11.62, -11.4, -10.79, -9.97, -8.22, -7.26, -7.26, -5.75, -7.59, -2.97, -2.97, -3.25, -3.25, -3.39, -5.95, -3.53, -3.39, -2.6, -2.19, -2.54, -0.0, -0.0, -4.2, -5.7, -2.82, -0.0, -3.53, -2.71, -0.0, -0.0, -0.0, -0.0, -9.8, 17.88, 21.95, -6.2, 0.0, 1.68, 4.1, 5.79, 5.07, 3.72, 1.96, 11.06, 8.68, 7.0, 8.18, 8.66, 10.82, 12.27, 14.42, 14.99, 8.1, 6.0, 7.93, 4.52, 0.0, 2.81, 7.36, 7.36, 7.84, 7.84, 7.84, 7.84, 8.52, 8.52, 8.27, 8.27, 8.97, 8.97, 9.42, 9.04, 8.79, 9.19, 9.47, 9.48, 9.49, 9.5, 9.84, 10.45, 10.75, 11.03, 10.11, 8.85, 8.49, 8.38, 9.1, 9.32, 8.91, 6.87, 4.93, 3.82, 2.28, 2.71, 0.0, 0.0, -5.0, -7.9, -11.62, -11.62, -9.67, -8.22, -6.97, -5.98, -5.2, -5.0, -3.96, -3.53, -0.0, -0.0, -0.0, -5.0, -7.59, -5.95, -5.7, -4.6, -4.6, -5.4, -0.0, 3.68, 6.32, 2.97, -0.0, -0.0, -0.0, -0.0, -0.0, -0.0, -0.0, -0.0, 0.0, 14.54, 21.57, -19.91, -16.54, 0.0, 2.2, 4.1, 5.48, 4.0, 1.72, 0.0, 14.75, 10.12, 12.27, 13.7, 13.7, 13.7, 13.03, 11.38, 13.44, 8.05, 6.2, 7.69, 2.81, 4.52, 4.38, 4.38, 7.84, 7.84, 7.84, 8.3, 8.3, 8.3, 8.52, 8.52, 8.97, 9.4, 9.42, 9.45, 9.19, 9.19, 9.47, 9.48, 9.84, 9.84, 10.13, 10.45, 11.03, 11.33, 11.06, 10.13, 9.13, 8.44, 9.1, 9.06, 9.48, 9.48, 7.54, 5.8, 4.65, 2.82, 3.53, 0.0, 0.0, -5.0, -7.9, -11.62, -5.2, -3.68, -2.71, -2.71, -2.19, -3.98, -4.32, -2.1, -1.62, -1.62, -1.76, -3.96, -7.59, -7.59, -7.27, -7.27, -6.17, -6.95, -6.45, 3.96, 9.3, 7.51, 3.11, -0.0, -0.0, -0.0, -0.0, -0.0, -0.0, 0.0, 6.9, 11.06, 20.78, 27.72, 27.72, 20.56, 17.88, 7.0, 6.4, 6.0, 6.2, 5.15, 4.24, 9.48, 13.19, 14.75, 14.75, 13.19, 3.69, 4.95, 8.43, 14.75, 3.47, 3.58, 2.63, 0.0, 0.0, 0.0, 7.63, 7.63, 7.63, 8.3, 8.3, 8.3, 8.3, 8.3, 8.97, 8.97, 9.42, 9.7, 9.45, 9.47, 9.47, 9.75, 9.84, 10.13, 10.45, 10.45, 11.03, 11.66, 11.36, 11.06, 10.13, 9.48, 9.17, 9.17, 9.17, 9.64, 9.17, 9.17, 7.82, 7.24, 6.97, 6.2, 3.39, 0.0, 0.0, 11.18, -0.0, -0.0, -0.0, -0.0, -0.0, -0.0, -0.0, -0.0, -0.0, -1.62, -3.07, -3.53, -6.94, -8.53, -7.9, -7.59, -8.23, -7.87, -8.55, -5.2, 6.7, 8.53, 4.2, -0.0, -0.0, -0.0, -0.0, -0.0, -0.0, 12.52, 6.7, 11.17, 16.27, 24.07, 27.17, 24.49, 20.78, 17.64, 5.98, 5.98, 8.59, 9.8, 9.49, 7.69, 14.3, 15.65, 10.75, 4.66, -0.0, -0.0, 6.31, 10.59, 15.2, 0.0, 0.0, 0.0, -2.72, -2.72, 7.88, 7.88, 7.63, 8.08, 8.3, 8.3, 8.3, 8.3, 8.74, 9.0, 9.42, 9.7, 9.45, 9.47, 9.47, 9.48, 10.13, 10.47, 10.47, 11.06, 11.36, 11.33, 11.63, 11.68, 11.1, 10.47, 10.18, 9.53, 9.56, 9.96, 10.03, 10.12, 10.56, 10.35, 10.55, 10.4, 10.68, 10.6, 10.52, 10.28, 10.6, 8.22, 8.22, 2.6, 2.02, 2.19, 2.19, -0.0, -0.0, -0.0, -1.52, -3.07, -5.1, -5.98, -7.9, -8.93, -9.6, -9.2, -9.11, -9.97, -5.4, 2.71, 2.71, 2.6, -0.0, -0.0, -0.0, -0.0, -0.0, 9.17, 7.19, 10.47, 12.9, 16.39, 20.03, 25.17, 23.32, 19.67, 5.06, 3.11, 6.45, 8.44, 9.16, 4.1, -13.86, -10.43, -0.0, 3.79, -0.0, -0.0, 10.75, 16.22, 15.59, 15.69, 0.0, 3.47, 3.47, 3.47, 7.88, 7.88, 8.33, 8.33, 8.56, 8.56, 9.0, 9.0, 9.0, 9.0, 9.42, 10.1, 9.83, 9.47, 9.48, 9.48, 9.84, 10.77, 11.08, 11.38, 11.36, 11.58, 11.63, 11.03, 11.06, 10.77, 10.47, 10.73, 10.09, 10.19, 10.29, 10.04, 10.43, 10.8, 10.6, 10.58, 10.79, 10.46, 11.06, 10.73, 10.96, 10.79, 8.94, 7.27, 6.14, 6.7, 7.27, 2.49, 1.93, -0.0, -0.0, -1.52, -2.95, -4.6, -6.24, -8.22, -9.3, -9.6, -9.55, -9.55, -7.9, -3.53, 2.71, 2.93, -0.0, -0.0, -0.0, 12.52, 0.0, 9.17, 11.9, 12.27, 10.91, 11.28, 13.59, 19.08, 23.23, 18.96, 3.36, 1.69, 5.0, 7.36, 8.83, 0.0, -12.52, -13.86, -10.43, -0.0, 3.79, 6.6, 14.75, 14.84, 16.05, 16.86, 16.31, 14.53, 14.11, 14.11, 7.66, 7.66, 8.33, 8.33, 8.33, 9.0, 9.0, 9.0, 8.77, 8.77, 9.42, 9.7, 10.11, 9.84, 9.48, 9.48, 10.13, 10.47, 11.08, 11.38, 11.63, 11.92, 11.63, 11.58, 10.99, 10.94, 10.65, 10.73, 10.31, 10.41, 10.15, 10.28, 10.63, 10.63, 10.55, 10.73, 10.92, 10.7, 11.11, 10.73, 11.06, 10.6, 9.58, 10.04, 10.04, 7.9, 7.33, 6.95, 6.17, 2.02, -0.0, -0.0, -0.0, -2.82, -4.8, -6.24, -8.53, -9.3, -9.96, -9.58, -8.94, -6.2, -0.0, -0.0, -0.0, -0.0, -0.0, -0.0, -5.2, 0.0, 13.15, 14.6, 13.59, 11.16, 8.41, 11.0, 14.26, 7.14, 0.0, 7.6, 7.54, 6.88, 8.85, 10.8, -0.0, -9.48, -9.48, -10.43, -0.0, 15.2, 10.43, 10.75, 14.53, 15.99, 16.88, 16.99, 16.54, 16.54, 7.66, 7.66, 8.33, 8.33, 8.33, 8.77, 8.77, 8.77, 8.77, 8.77, 8.77, 9.45, 10.11, 9.84, 10.13, 9.84, 10.13, 10.47, 11.06, 11.06, 11.63, 11.92, 11.58, 11.28, 11.23, 10.94, 10.87, 10.59, 10.51, 10.61, 10.73, 10.65, 10.48, 10.4, 10.55, 10.85, 11.03, 10.78, 11.12, 10.73, 10.73, 10.62, 10.75, 9.6, 9.3, 9.67, 10.0, 8.55, 7.27, 5.75, 5.75, 4.6, 1.45, -0.0, -4.23, -4.8, -5.21, -7.9, -9.97, -10.6, -9.96, -10.6, -12.07, -10.4, -5.4, -2.45, -0.0, -0.0, 11.18, 0.0, 7.59, 13.15, 16.09, 16.94, 13.6, 13.59, 13.91, 8.97, 0.0, 11.16, 14.86, 7.68, 9.46, 12.52, 11.4, 13.57, 9.8, -14.3, -14.75, -10.43, 0.0, 7.0, 13.99, 15.65, 16.09, 17.43, 17.33, 17.33, 7.66, 7.66, 8.11, 8.33, 8.33, 8.77, 8.77, 8.77, 9.04, 9.04, 9.04, 9.04, 10.11, 10.11, 10.13, 9.84, 10.13, 10.76, 10.76, 11.36, 11.63, 11.58, 11.58, 11.28, 11.23, 10.59, 10.51, 10.41, 10.79, 11.06, 11.06, 10.91, 10.8, 10.94, 10.68, 10.52, 10.68, 11.02, 10.68, 10.73, 10.73, 10.66, 10.41, 10.32, 9.6, 11.45, 10.8, 9.86, 8.55, 8.73, 7.59, 6.42, 6.42, 3.39, -0.0, -4.23, -4.18, -5.64, -8.58, -10.6, -10.96, -11.62, -12.07, -8.22, -8.53, -6.97, -5.2, -0.0, 11.45, 9.83, 8.06, 10.0, 15.65, 22.36, 21.01, 16.2, 14.09, 12.51, 14.18, 18.26, 15.49, 9.89, 11.6, 13.23, 13.44, 14.19, 14.16, 14.3, -14.3, -14.75, -14.75, -14.75, 13.59, 15.34, 15.65, 16.09, 16.99, 16.99, 7.92, 7.92, 8.37, 8.37, 8.37, 9.04, 9.04, 9.04, 8.79, 8.79, 8.79, 8.79, 9.19, 9.84, 10.13, 10.47, 10.47, 10.76, 10.76, 11.03, 11.33, 11.58, 11.52, 10.94, 10.88, 10.59, 10.51, 9.86, 11.2, 10.27, 11.2, 11.06, 11.33, 10.8, 11.21, 10.95, 10.75, 10.89, 10.69, 10.73, 10.28, 10.73, 10.66, 10.47, 10.41, 10.84, 10.84, 10.05, 9.86, 9.7, 8.93, 8.03, 7.59, 6.7, 5.29, -0.0, -2.71, -3.53, -5.69, -8.37, -11.71, -11.62, -9.67, -7.9, -8.22, -7.9, -7.27, -8.22, 12.52, 12.07, 9.75, 10.28, 9.8, 18.78, 29.01, 19.63, 11.72, 8.94, 12.39, 17.35, 17.62, 17.53, 15.65, 13.57, 14.51, 15.14, 15.57, 14.75, 14.3, -0.0, -9.8, -10.12, 14.75, 15.2, 15.2, 15.65, 16.09, 16.09, 8.14, 8.14, 8.37, 8.37, 8.37, 8.79, 8.79, 8.79, 8.79, 8.79, 8.79, 9.07, 9.07, 9.47, 10.13, 10.77, 10.47, 11.06, 11.06, 11.36, 11.33, 11.33, 11.28, 11.23, 10.65, 10.59, 9.94, 10.23, 10.13, 11.41, 10.13, 10.67, 10.92, 11.06, 11.3, 11.03, 11.18, 10.93, 11.05, 10.7, 10.28, 10.73, 10.68, 10.68, 11.12, 10.66, 10.47, 10.04, 10.18, 10.05, 9.45, 9.2, 8.73, 8.38, 6.42, 4.8, -0.0, -2.6, -2.49, -5.32, -8.24, -7.59, -5.2, -5.95, -7.9, -7.9, -8.58, -9.2, -11.62, 12.96, 8.53, -0.0, 0.0, 12.36, 27.32, 23.65, 14.47, 11.62, 13.41, 14.3, 16.03, 16.9, 16.44, 16.46, 16.5, 16.54, 16.09, 15.2, 14.3, 13.41, -0.0, -0.0, 13.86, 14.3, 14.3, 15.2, 15.05, 15.05, 8.14, 8.14, 8.14, 8.37, 8.37, 8.79, 8.79, 8.79, 8.79, 9.07, 9.07, 8.81, 8.81, 9.2, 10.13, 10.77, 10.47, 11.06, 11.36, 11.36, 11.33, 11.63, 11.28, 11.23, 10.65, 10.59, 9.94, 9.94, 10.41, 10.3, 10.27, 10.4, 10.65, 11.06, 11.3, 11.03, 11.23, 11.36, 11.06, 10.7, 10.73, 10.28, 10.73, 10.68, 10.68, 10.23, 10.08, 10.08, 10.52, 10.47, 10.41, 10.27, 9.6, 8.03, 8.03, 6.42, 3.25, -0.0, -1.28, -2.6, -6.94, -5.0, -5.0, -3.53, -5.7, -7.59, -8.58, -9.6, -10.4, -0.0, 3.96, 5.6, 12.52, 12.0, 20.32, 25.24, 18.78, 13.99, 11.75, 13.44, 15.74, 16.5, 16.54, 16.99, 16.54, 16.06, 16.09, 15.2, 14.3, 13.41, -0.0, -0.0, 12.52, 13.41, 13.41, 14.75, 15.2, 15.2, 8.14, 8.14, 8.14, 8.14, 8.4, 8.81, 8.81, 9.07, 8.81, 8.81, 8.81, 8.81, 9.2, 9.48, 9.21, 10.13, 10.76, 11.06, 11.36, 11.36, 11.58, 11.87, 11.52, 11.58, 11.52, 10.59, 10.3, 9.94, 10.41, 10.68, 10.4, 10.52, 10.65, 10.88, 11.03, 11.03, 11.23, 11.4, 11.06, 11.15, 10.73, 10.28, 10.28, 10.73, 10.24, 10.24, 9.79, 10.23, 10.23, 10.68, 10.47, 10.84, 10.32, 9.2, 8.38, 7.27, 5.06, 1.62, -0.0, -2.82, -5.46, -6.45, -4.8, -5.0, -5.0, -7.9, -8.93, -9.3, -9.3, -8.53, -0.0, 9.8, 14.3, 14.95, 18.42, 21.13, 20.4, 17.16, 15.91, 17.41, 17.4, 16.95, 15.49, 14.99, 15.58, 14.75, 14.75, 14.75, 13.28, 12.14, 11.2, 12.52, 12.52, 12.52, 12.3, 12.96, 14.75, 14.75, 8.16, 8.16, 8.4, 8.4, 8.4, 8.81, 8.81, 8.81, 8.81, 8.81, 8.81, 9.09, 9.48, 9.21, 9.49, 9.49, 10.13, 10.76, 11.36, 11.92, 11.58, 11.87, 11.52, 11.8, 11.52, 10.94, 10.87, 9.94, 10.23, 10.51, 10.79, 10.67, 10.4, 10.24, 10.38, 10.6, 10.8, 10.93, 11.06, 11.14, 10.7, 10.73, 10.28, 9.83, 9.79, 9.79, 9.79, 10.24, 10.23, 10.68, 10.66, 10.65, 9.89, 10.18, 9.2, 7.68, 5.06, 3.11, 1.62, -2.82, -4.05, -5.59, -7.59, -7.27, -4.6, -5.0, -5.7, -5.95, -6.2, -7.9, -9.17, -0.0, 13.99, 16.79, 19.22, 17.4, 17.4, 19.37, 21.19, 19.2, 19.2, 15.95, 12.51, 12.3, 13.41, 12.96, 12.79, 12.35, 11.87, 12.3, 12.04, 12.3, 12.96, 12.96, 11.87, 12.96, 13.86, 13.86, 7.73, 7.73, 8.16, 8.16, 8.16, 8.81, 8.81, 8.81, 9.09, 9.09, 9.09, 8.83, 9.49, 9.49, 9.49, 9.22, 10.13, 10.45, 10.75, 11.33, 11.58, 11.87, 11.8, 11.8, 11.52, 11.16, 10.87, 10.51, 10.23, 10.13, 10.4, 10.52, 10.8, 10.65, 10.38, 10.6, 10.75, 10.93, 10.93, 11.05, 10.69, 10.73, 10.28, 11.18, 9.34, 9.83, 10.28, 10.28, 10.28, 10.73, 10.73, 10.65, 10.18, 10.32, 9.33, 8.43, 6.95, 4.83, 1.93, -1.62, -3.87, -4.2, -7.27, -6.95, -4.8, -5.0, -5.46, -4.6, -3.39, -3.39, -5.2, -4.1, 8.68, 17.81, 20.97, 17.7, 13.37, 16.61, 21.82, 21.96, 18.37, 15.3, 13.01, 11.84, 11.71, 12.04, 12.72, 12.3, 11.6, 12.3, 12.3, 13.15, 13.41, 11.99, 11.6, 12.3, 13.41, 13.41, 7.73, 7.73, 8.16, 8.16, 8.43, 8.83, 8.83, 8.83, 8.83, 8.83, 8.83, 9.49, 9.49, 9.22, 9.22, 9.5, 9.5, 10.13, 10.43, 10.99, 11.33, 11.52, 11.8, 11.8, 11.72, 11.44, 11.44, 11.16, 10.79, 10.13, 10.4, 10.52, 10.8, 10.65, 10.53, 10.38, 10.52, 10.75, 10.89, 10.6, 10.58, 10.69, 10.28, 11.62, 9.79, 9.83, 10.28, 10.28, 10.28, 10.73, 10.28, 10.28, 10.18, 10.14, 9.33, 8.05, 7.51, 5.63, 4.2, -0.0, -3.87, -3.7, -3.39, -4.2, -4.4, -3.39, -3.39, -5.7, -3.39, -3.53, -5.0, -9.17, 10.43, 17.35, 23.99, 22.75, 13.99, 12.29, 16.95, 18.34, 16.12, 14.81, 15.11, 14.75, 12.39, 11.5, 12.39, 12.74, 12.33, 12.89, 12.89, 13.23, 13.41, 13.41, 11.99, 10.79, 12.72, 13.41, 7.5, 7.5, 8.18, 8.43, 8.43, 8.83, 8.83, 8.83, 8.83, 8.83, 9.22, 9.22, 9.22, 9.22, 9.5, 9.5, 9.5, 10.13, 10.13, 10.72, 10.72, 11.28, 11.8, 11.44, 11.72, 11.44, 11.44, 11.34, 11.06, 10.68, 10.4, 10.67, 10.8, 10.8, 10.53, 10.79, 10.52, 10.75, 10.68, 10.45, 10.58, 10.24, 10.24, 9.83, 11.62, 9.83, 10.73, 10.73, 10.28, 10.28, 9.83, 9.83, 9.29, 9.26, 8.72, 8.72, 7.15, 6.32, 6.64, -0.0, -2.7, -3.7, -3.4, -3.11, -3.25, -3.25, -5.46, -5.7, -5.95, -3.53, -0.0, 11.62, 9.8, 15.65, 19.29, 24.31, 22.9, 15.61, 12.07, 12.03, 11.99, 13.01, 13.41, 12.72, 11.6, 12.74, 13.39, 13.81, 13.88, 13.53, 13.44, 13.75, 13.86, 13.86, 12.72, 9.48, 9.17, 12.72, 7.76, 7.76, 8.18, 8.18, 8.18, 8.57, 8.57, 8.57, 8.85, 8.85, 9.22, 9.22, 9.22, 9.5, 9.5, 9.5, 9.21, 9.82, 10.12, 10.12, 10.4, 10.69, 11.23, 11.23, 11.16, 11.44, 11.07, 11.34, 11.22, 11.06, 10.94, 10.27, 10.27, 10.4, 10.65, 10.79, 10.79, 10.52, 10.68, 10.45, 10.41, 10.12, 10.24, 10.23, 9.79, 11.18, 10.28, 10.28, 9.83, 9.83, 9.39, 9.39, 9.26, 8.82, 8.77, 8.3, 7.6, 7.15, 6.32, 4.2, -1.54, -3.7, -2.6, -3.11, -0.0, -4.6, -6.95, -5.95, -5.7, -6.2, -3.68, 11.62, 0.0, 6.2, 15.65, 18.39, 27.6, 26.74, 13.86, 12.04, 13.19, 14.75, 13.15, 12.72, 12.85, 13.59, 14.22, 14.66, 14.68, 14.23, 14.3, 14.3, 13.86, 13.86, 13.15, 9.17, 0.0, 0.0, 7.76, 7.76, 8.18, 8.18, 8.18, 8.85, 8.85, 8.85, 8.85, 8.85, 9.5, 9.5, 9.5, 9.21, 9.21, 9.5, 9.5, 9.82, 9.82, 9.8, 10.09, 10.36, 10.65, 10.65, 10.59, 10.8, 10.7, 10.96, 11.22, 10.83, 10.94, 10.55, 10.27, 10.52, 10.4, 10.65, 10.79, 10.95, 10.75, 10.68, 10.41, 10.58, 10.12, 10.12, 10.56, 10.56, 10.28, 9.83, 9.39, 9.39, 9.39, 8.94, 8.85, 8.82, 8.38, 7.89, 7.2, 7.6, 8.0, 6.32, -0.0, -2.46, -3.35, -3.11, -0.0, -3.11, -5.7, -5.7, -5.7, -6.2, -3.68, 11.18, 0.0, 0.0, 4.66, 15.61, 21.9, 31.37, 27.62, 18.66, 16.1, 15.99, 16.51, 15.12, 13.28, 13.8, 13.86, 14.3, 14.75, 14.25, 14.25, 14.25, 13.79, 13.33, 11.6, -11.6, -11.6, -11.6, 7.53, 7.53, 7.93, 8.2, 8.2, 8.2, 8.85, 8.58, 8.86, 8.86, 9.21, 9.21, 9.21, 9.21, 9.5, 9.5, 9.5, 9.82, 9.8, 10.09, 10.09, 9.77, 10.06, 10.59, 10.23, 10.51, 10.51, 10.41, 10.41, 10.68, 10.55, 10.55, 10.4, 10.27, 10.52, 10.65, 10.79, 10.79, 10.95, 10.68, 10.68, 10.41, 10.41, 10.56, 10.56, 11.0, 10.68, 9.83, 9.39, 8.94, 8.94, 8.94, 8.94, 8.85, 8.38, 8.33, 7.2, 7.2, 7.6, 8.0, 2.17, -1.26, -2.46, -2.6, -3.11, -3.11, -5.7, -5.95, -7.27, -7.9, -7.9, -10.73, 0.0, 4.1, 4.98, 10.75, 16.96, 23.69, 29.92, 24.71, 20.09, 19.71, 17.94, 17.48, 14.5, 13.8, 14.3, 13.75, 13.39, 13.7, 13.27, 13.27, 13.15, 12.45, 0.0, -12.96, -12.96, -12.96, 7.53, 7.53, 7.53, 8.2, 8.2, 8.2, 8.58, 8.86, 8.86, 8.86, 8.86, 9.21, 9.21, 9.5, 9.5, 9.21, 9.5, 9.5, 9.8, 10.09, 9.77, 10.06, 9.72, 10.01, 9.66, 9.94, 9.94, 10.23, 10.41, 10.3, 10.3, 10.55, 10.4, 10.4, 10.52, 10.65, 10.65, 10.79, 11.03, 10.52, 10.68, 10.25, 10.41, 10.41, 10.35, 10.56, 10.56, 10.24, 9.79, 9.83, 9.39, 9.39, 8.94, 8.94, 8.85, 8.33, 7.89, 7.47, 7.89, 8.24, 4.71, -0.0, -2.17, -2.33, -3.39, -3.11, -5.46, -6.64, -8.23, -8.93, -8.22, -7.27, 0.0, 3.96, 9.48, 12.79, 15.87, 18.33, 22.03, 22.99, 22.73, 23.28, 23.19, 17.72, 16.33, 14.84, 14.75, 13.99, 12.81, 11.99, 13.57, 11.87, 11.12, 5.8, -12.3, -12.14, -12.14, -12.14, 7.53, 7.53, 7.8, 8.2, 8.2, 8.2, 8.49, 8.86, 8.86, 8.86, 8.86, 9.5, 9.5, 9.21, 9.21, 9.5, 9.5, 9.5, 9.77, 9.77, 10.06, 9.72, 10.01, 9.66, 9.94, 9.94, 10.23, 10.23, 10.23, 10.13, 10.13, 10.4, 10.02, 10.27, 10.52, 10.52, 10.65, 10.65, 10.79, 11.03, 10.52, 10.68, 10.68, 10.18, 10.41, 10.35, 10.56, 10.12, 10.23, 9.79, 9.77, 9.39, 9.39, 8.94, 8.94, 8.38, 8.38, 7.89, 7.89, 7.89, 7.07, -0.0, -1.11, -2.28, -2.83, -4.6, -4.4, -7.44, -8.18, -8.55, -9.75, -10.73, 11.62, 0.0, 11.99, 13.86, 15.2, 15.99, 17.35, 16.22, 18.72, 26.08, 26.3, 21.01, 17.99, 15.36, 16.54, 15.61, 10.12, 9.8, 13.41, 11.45, 5.6, -11.2, -12.52, -12.07, -12.07, -12.07, 7.53, 7.53, 7.8, 8.2, 7.95, 8.22, 8.22, 8.59, 8.59, 8.59, 8.87, 8.87, 9.21, 9.21, 9.5, 9.5, 9.19, 9.48, 9.77, 9.77, 9.72, 10.01, 9.66, 9.94, 9.59, 9.71, 10.01, 10.01, 10.31, 9.95, 10.13, 10.4, 10.02, 10.27, 10.27, 10.52, 10.65, 10.65, 10.65, 10.38, 10.27, 10.52, 10.43, 10.68, 10.18, 10.41, 10.35, 10.12, 10.08, 10.23, 9.77, 9.33, 9.39, 8.94, 8.49, 8.49, 8.38, 7.94, 7.94, 7.89, 7.2, 1.67, -1.2, -2.17, -2.46, -3.11, -4.2, -6.64, -9.33, -9.83, -10.28, -11.18, -11.62, 12.52, 12.96, 13.41, 14.3, 15.05, 14.39, 12.56, 14.03, 22.91, 26.5, 22.5, 19.55, 15.25, -0.0, -14.75, -13.44, -7.19, -3.96, -0.0, 0.0, -10.8, -12.07, -12.07, -12.07, -12.07, 7.53, 7.53, 7.8, 7.55, 8.22, 8.22, 8.22, 8.59, 8.87, 8.87, 8.87, 8.87, 9.19, 9.19, 9.19, 9.19, 9.48, 9.48, 9.48, 9.72, 9.72, 10.01, 9.66, 9.94, 9.59, 9.71, 10.01, 10.01, 9.95, 9.95, 9.95, 9.86, 9.86, 10.13, 10.13, 10.4, 10.4, 10.24, 10.24, 10.13, 10.38, 10.27, 10.52, 10.43, 10.68, 10.18, 10.35, 9.92, 10.08, 10.08, 9.77, 9.77, 9.32, 8.94, 8.94, 8.49, 8.49, 7.94, 7.94, 7.94, 7.37, 1.95, -1.4, -3.14, -3.52, -3.25, -3.11, -4.2, -8.8, -9.83, -10.28, -10.73, -11.62, -12.07, 12.52, 13.41, 13.86, 12.79, 10.43, 10.02, 13.23, 17.71, 21.73, 21.19, 20.48, 13.91, -14.75, -12.96, -7.78, -4.65, -5.6, -10.04, -11.62, -11.18, -11.18, -10.73, -10.73, -10.73, 6.88, 6.88, 7.13, 7.55, 7.83, 8.22, 8.22, 8.23, 8.59, 8.59, 8.59, 8.87, 8.87, 9.19, 9.19, 9.19, 9.48, 9.48, 9.48, 9.46, 9.72, 9.66, 9.66, 9.94, 9.37, 9.37, 9.66, 9.66, 9.95, 9.95, 10.24, 9.86, 9.86, 10.13, 9.97, 9.97, 10.0, 10.0, 10.24, 10.24, 10.13, 10.38, 10.27, 10.43, 10.43, 10.6, 10.18, 10.35, 9.85, 10.08, 9.6, 9.77, 9.32, 8.85, 8.94, 8.49, 8.49, 8.05, 8.05, 7.94, 7.89, 4.22, -1.32, -4.21, -5.44, -6.32, -4.96, -2.97, -6.64, -6.95, -8.8, -10.28, -11.18, -12.07, 12.52, 12.96, 9.48, 6.0, 8.58, 9.44, 12.02, 13.76, 14.88, 17.7, 23.31, 16.41, -10.52, -10.28, -10.79, -6.44, -4.48, -8.22, -10.73, -10.28, -9.83, -9.39, -9.39, -9.39, 7.13, 7.13, 7.13, 7.31, 7.57, 7.96, 8.23, 8.23, 8.23, 8.59, 8.87, 8.87, 8.87, 9.19, 9.19, 9.19, 9.48, 9.48, 9.48, 9.46, 9.46, 9.66, 9.66, 9.71, 9.37, 9.37, 9.66, 9.66, 9.73, 9.73, 9.67, 9.67, 9.97, 9.58, 9.58, 9.86, 9.86, 9.86, 9.86, 10.24, 10.24, 10.13, 10.27, 10.27, 10.15, 10.43, 10.18, 10.08, 9.85, 9.85, 10.04, 9.6, 9.32, 8.85, 8.94, 8.49, 8.49, 8.05, 8.05, 8.05, 8.05, 6.32, -0.0, -3.17, -5.15, -6.32, -6.32, -2.97, -0.0, -3.11, -4.4, -0.0, -0.0, -11.18, 12.07, 12.52, 12.96, 5.8, 4.38, 8.85, 10.43, 11.33, 11.06, 15.38, 25.68, 8.4, -12.79, -10.73, -10.73, -10.96, -5.2, -2.82, -10.6, -10.73, -10.28, -9.64, -9.64, -9.64, 7.13, 6.46, 6.9, 6.9, 7.57, 7.57, 8.23, 8.23, 8.23, 8.59, 8.59, 8.87, 8.87, 9.5, 9.19, 9.19, 9.19, 9.48, 9.17, 9.46, 9.46, 9.46, 9.42, 9.37, 9.37, 9.37, 9.66, 9.66, 9.73, 9.37, 9.67, 9.67, 9.58, 9.58, 9.58, 9.86, 9.86, 9.86, 9.86, 9.86, 10.13, 10.13, 10.13, 10.27, 10.27, 10.15, 9.9, 10.08, 10.08, 9.85, 9.75, 9.6, 9.54, 8.85, 8.85, 8.49, 8.49, 8.05, 8.05, 8.05, 8.05, 7.37, -0.0, -3.4, -5.37, -5.95, -7.81, -6.64, -4.2, -0.0, -0.0, -0.0, -0.0, -0.0, -0.0, 11.62, 12.52, -0.0, 6.0, 7.69, 10.12, 10.12, 10.12, 16.12, 27.27, 14.54, -0.0, -6.7, -10.58, -10.32, -11.18, -7.9, -11.62, -11.18, -10.73, -9.54, -9.54, -9.54, 6.46, 6.46, 6.9, 6.9, 7.57, 7.57, 7.96, 8.23, 8.51, 8.87, 8.87, 8.87, 8.87, 8.87, 8.87, 9.19, 9.48, 9.17, 9.17, 9.46, 9.46, 9.13, 9.08, 9.37, 9.37, 9.66, 9.66, 9.37, 9.37, 9.37, 9.67, 9.09, 9.58, 9.58, 9.58, 9.86, 9.86, 9.86, 9.86, 9.86, 10.13, 10.13, 10.13, 10.0, 10.27, 10.15, 9.9, 9.9, 10.08, 9.55, 9.75, 9.33, 9.54, 8.87, 8.85, 8.41, 8.49, 8.49, 8.05, 8.05, 7.6, 7.37, 1.84, -2.82, -5.37, -6.6, -8.91, -8.91, -9.83, -6.64, -0.0, -0.0, 7.27, 7.27, -0.0, 11.18, 12.07, 8.85, 9.17, 9.17, 9.48, 9.8, 12.27, 27.21, 27.58, 4.77, -0.0, 2.54, -11.62, -8.72, -9.58, -7.9, -8.22, -11.03, -10.41, -9.75, -9.75, -9.75, 6.46, 6.46, 6.46, 6.9, 6.9, 7.57, 8.22, 8.22, 8.59, 8.59, 8.59, 8.87, 8.87, 8.87, 8.87, 8.87, 8.87, 9.17, 9.17, 9.46, 9.13, 9.42, 9.08, 9.37, 9.02, 9.3, 9.08, 9.37, 9.37, 9.37, 9.09, 9.09, 9.09, 9.4, 9.4, 9.58, 9.86, 9.86, 9.86, 9.7, 9.7, 10.13, 10.13, 10.13, 10.27, 10.15, 10.15, 9.9, 9.77, 9.55, 9.85, 9.33, 9.11, 8.67, 8.85, 8.41, 8.41, 8.49, 8.05, 8.05, 7.5, 6.8, 4.22, -1.84, -5.93, -6.6, -7.31, -7.6, -10.28, -10.28, -10.28, 10.28, 10.28, 10.28, 10.28, -0.0, -0.0, 5.4, 8.85, 8.85, 7.19, 9.8, 16.69, 25.02, 24.9, -4.55, -3.69, -0.0, -5.4, -9.67, -9.09, -5.0, -3.53, -7.9, -10.18, -9.75, -9.75, -9.75, 6.46, 6.46, 6.46, 6.9, 7.13, 7.55, 7.95, 8.22, 8.22, 8.59, 8.87, 8.59, 8.59, 8.87, 8.58, 8.58, 8.87, 8.87, 9.17, 9.13, 9.13, 9.08, 9.08, 9.02, 9.02, 9.08, 9.08, 9.37, 9.01, 9.01, 9.09, 9.09, 9.09, 9.4, 9.4, 9.4, 9.7, 9.86, 9.7, 9.7, 9.7, 10.0, 10.0, 10.0, 10.27, 10.27, 10.15, 9.9, 9.9, 10.08, 9.55, 9.85, 9.16, 9.11, 8.67, 8.41, 8.41, 8.41, 8.05, 8.05, 7.89, 6.8, 6.32, -0.0, -5.69, -7.2, -7.74, -7.97, -10.28, -10.73, -10.73, -9.6, -9.6, -7.27, -9.83, 9.83, -0.0, -0.0, 11.2, 8.85, 8.85, 7.44, 15.92, 20.09, 24.39, -8.0, -3.36, -0.0, -4.8, -10.96, -8.49, -5.98, -3.68, -5.0, -7.9, -8.8, -8.8, -8.8, 6.46, 6.46, 6.46, 7.13, 7.13, 7.55, 7.55, 8.22, 8.22, 8.23, 8.23, 8.23, 8.24, 8.58, 8.58, 8.58, 8.87, 8.56, 8.85, 8.85, 8.53, 8.82, 8.82, 8.78, 9.08, 9.08, 8.73, 9.01, 9.01, 9.01, 9.09, 9.09, 9.09, 9.4, 9.4, 9.4, 9.7, 9.7, 9.7, 9.7, 9.7, 10.0, 9.6, 9.6, 9.6, 9.86, 9.74, 10.01, 9.9, 9.77, 9.66, 9.55, 8.91, 9.16, 8.67, 8.67, 8.41, 8.41, 8.05, 8.05, 8.05, 7.81, 7.63, 7.2, -0.0, -7.2, -8.06, -8.41, -8.49, -10.73, -10.73, -10.73, -9.6, -7.27, 10.28, -0.0, -0.0, 11.18, 11.62, 8.53, 8.85, 11.9, 15.33, 19.2, 28.22, 24.59, -11.38, -3.68, -0.0, -10.0, -8.22, -6.45, -3.68, 0.0, -3.53, -7.27, -7.27, -7.27, 6.46, 6.46, 6.46, 6.9, 6.9, 7.13, 7.57, 7.57, 7.96, 8.23, 8.23, 7.96, 8.24, 8.24, 8.58, 8.87, 8.56, 8.56, 8.85, 8.53, 8.82, 8.82, 8.5, 8.78, 9.08, 8.73, 8.73, 9.01, 9.01, 9.3, 9.09, 9.09, 9.09, 9.02, 9.02, 9.02, 9.7, 9.7, 9.7, 9.7, 10.0, 9.6, 9.6, 9.45, 9.45, 9.74, 9.74, 9.74, 9.9, 9.9, 9.66, 9.13, 8.91, 8.91, 8.67, 8.67, 8.17, 8.41, 8.38, 8.05, 8.05, 8.05, 8.05, 7.2, 5.69, -6.01, -8.24, -8.41, -8.49, -10.28, -10.28, -10.73, -10.28, -9.83, -0.0, -0.0, -0.0, 10.28, 10.73, 11.62, 12.96, 13.86, 15.65, 19.22, 25.8, 27.18, -19.22, -10.75, -0.0, -0.0, -8.22, -6.45, -2.37, 0.0, 0.0, -7.9, -7.9, -7.9, 6.46, 6.46, 6.46, 6.46, 6.9, 7.16, 7.16, 7.57, 7.85, 8.23, 7.96, 7.96, 8.24, 8.24, 8.24, 8.24, 8.56, 8.56, 8.53, 8.53, 8.82, 8.5, 8.5, 8.45, 8.73, 8.73, 8.73, 9.01, 9.01, 8.73, 8.73, 8.73, 8.73, 8.82, 8.82, 9.02, 9.32, 9.7, 9.7, 9.7, 10.0, 9.6, 9.45, 9.45, 9.45, 9.74, 9.74, 9.74, 9.9, 9.9, 9.36, 9.13, 9.42, 8.91, 8.48, 8.67, 8.24, 8.17, 8.38, 8.49, 8.05, 8.05, 8.05, 8.49, 8.49, 8.49, -8.94, -8.67, -8.94, -10.28, -10.28, -10.28, -9.83, -9.39, 9.39, 9.39, 9.39, 9.39, 10.28, 11.62, 12.52, 9.48, 14.31, 17.26, 23.69, 27.5, 13.91, -15.65, -8.85, 11.62, 11.62, -5.2, -1.71, 0.0, 0.0, 0.0, 0.0, 0.0, 6.25, 6.25, 6.25, 6.5, 6.5, 6.92, 6.92, 6.92, 7.59, 7.59, 7.96, 7.96, 8.24, 8.24, 7.96, 8.24, 8.24, 8.24, 8.24, 8.24, 8.53, 8.22, 8.22, 8.78, 8.73, 8.73, 8.73, 9.01, 8.65, 8.44, 8.73, 8.73, 9.02, 8.82, 8.82, 8.82, 9.32, 9.32, 9.32, 9.32, 9.6, 9.6, 9.45, 9.45, 9.45, 9.74, 9.74, 9.6, 9.9, 9.9, 9.49, 9.24, 9.13, 8.99, 8.48, 8.48, 8.24, 8.17, 8.38, 8.38, 8.49, 8.49, 8.49, 8.49, 8.49, 8.49, 8.94, 8.94, -8.94, -8.94, -9.11, -10.6, -10.28, 9.39, 9.39, 9.39, 9.39, 9.83, 10.28, 11.62, 12.52, 9.48, 13.19, 15.9, 22.72, 27.72, 18.26, 0.0, -10.12, 0.0, 8.85, 0.0, 0.0, 0.0, 0.0, 0.0, 0.0, 0.0, 6.25, 6.25, 6.5, 6.5, 6.5, 6.5, 6.92, 6.92, 7.59, 7.59, 7.96, 8.24, 8.24, 7.96, 8.24, 8.24, 7.95, 8.24, 8.24, 8.24, 7.93, 8.22, 8.22, 7.9, 8.19, 8.49, 8.49, 8.79, 8.44, 8.44, 8.73, 8.73, 9.02, 8.82, 8.82, 8.82, 9.14, 9.32, 9.32, 9.32, 9.6, 9.45, 9.45, 9.45, 9.45, 9.74, 9.6, 9.6, 9.9, 9.9, 9.36, 9.24, 9.24, 8.72, 8.99, 8.48, 8.37, 8.24, 8.17, 8.38, 8.38, 8.49, 8.49, 8.49, 8.49, 8.49, 8.94, 8.94, -8.94, -8.94, -9.39, -11.18, -10.28, 10.73, 9.39, 9.83, 9.83, 9.83, 10.28, 10.73, 12.07, 11.6, 12.79, 14.84, 20.94, 27.72, 21.9, 15.61, 10.12, 6.2, 6.94, 8.85, 3.82, 0.0, 3.04, 10.8, 10.8, 10.8, 6.04, 6.04, 6.5, 6.27, 6.27, 6.27, 6.27, 6.92, 7.19, 7.59, 7.59, 8.24, 7.96, 7.96, 8.24, 7.95, 7.95, 8.24, 8.24, 7.93, 7.93, 8.22, 8.22, 7.9, 8.19, 8.19, 8.49, 8.49, 8.44, 8.44, 8.73, 8.73, 9.02, 8.82, 8.82, 8.82, 8.82, 9.14, 9.32, 9.14, 9.45, 9.45, 9.45, 9.45, 9.45, 9.6, 9.6, 9.6, 9.9, 9.49, 9.36, 8.95, 9.24, 8.72, 8.72, 8.48, 8.48, 8.37, 8.6, 8.17, 8.38, 8.38, 8.33, 8.49, 8.49, 8.49, 8.94, 8.94, 8.94, 8.94, -9.39, -9.39, -9.39, -11.62, -9.39, -9.83, 9.83, 9.83, 10.28, 10.73, 11.62, 11.6, 12.39, 13.99, 18.7, 25.03, 24.07, 18.68, 15.65, 14.75, 13.44, 11.16, 10.79, 6.94, 8.85, 12.52, 12.52, 12.52, 6.04, 6.04, 6.5, 6.27, 6.27, 6.27, 6.27, 6.92, 7.19, 7.59, 7.59, 8.24, 7.96, 7.96, 8.24, 7.95, 7.95, 8.24, 8.24, 7.93, 7.93, 8.22, 8.22, 7.9, 8.19, 8.19, 8.49, 8.49, 8.44, 8.44, 8.73, 8.73, 9.02, 8.82, 8.82, 8.82, 8.82, 9.14, 9.32, 9.14, 9.45, 9.45, 9.45, 9.45, 9.45, 9.6, 9.6, 9.6, 9.9, 9.49, 9.36, 8.95, 9.24, 8.72, 8.72, 8.48, 8.48, 8.37, 8.6, 8.17, 8.38, 8.38, 8.33, 8.49, 8.49, 8.49, 8.94, 8.94, 8.94, 8.94, -9.39, -9.39, -9.39, -11.62, -9.39, -9.83, 9.83, 9.83, 10.28, 10.73, 11.62, 11.2, 11.99, 13.57, 16.01, 20.12, 23.63, 20.54, 18.65, 15.53, 15.11, 14.3, 13.59, 11.99, 11.2, 12.07, 12.07, 12.07]}, {"header": {"dx": 0.06612293990616946, "dy": 0.0552356325346848, "nx": 98, "ny": 59, "la1": 35.046912555036876, "la2": 31.78801023549047, "lo1": -121.43107172385933, "lo2": -114.95102361305473, "refTime": "2026041610", "parameterCategory": 1, "parameterNumber": 3}, "data": [-16.12, -16.12, -16.25, -15.53, -15.09, -14.62, -13.8, -13.33, -12.65, -12.45, -12.17, -11.2, -12.87, -12.71, -12.07, -11.46, -10.79, -9.58, -8.22, -7.82, -6.67, -4.81, -2.28, -0.0, -2.71, -3.68, -6.7, -10.41, -10.04, -11.45, -12.52, -9.17, 0.0, 0.0, 0.0, 0.0, 0.0, -1.16, -2.28, -2.49, -2.39, -3.92, -4.58, -6.4, -6.64, -8.86, -10.23, -12.08, -10.12, 0.0, 14.16, 13.56, 12.37, 11.06, 11.06, 10.39, 9.2, 8.68, 7.21, 6.18, 6.18, 5.67, 6.6, 7.93, 7.69, 8.2, 7.21, 7.21, 7.97, 7.98, 7.63, 7.0, 8.68, 11.06, 12.02, 11.06, 7.92, 6.4, 2.89, -0.0, 5.31, 6.0, -0.0, -5.6, -6.7, -3.68, -5.4, -10.0, -10.6, -6.71, -6.63, -7.44, -7.95, -7.92, -7.43, -6.4, -5.36, -4.81, -16.12, -16.12, -15.96, -15.7, -15.28, -14.85, -13.65, -13.42, -12.5, -12.27, -11.69, -11.53, -10.37, -10.01, -12.3, -12.07, -10.52, -10.8, -8.53, -7.56, -8.59, -7.19, -2.54, -0.0, -0.0, 2.71, -0.0, -3.82, -6.7, -10.41, -13.57, -13.86, 0.0, 0.0, 1.95, 0.0, 0.0, -0.99, -2.04, -3.61, -5.6, -6.65, -7.78, -10.04, -12.56, -14.35, -15.0, -12.07, -4.87, 14.55, 13.56, 12.37, 9.89, 10.01, 10.75, 10.39, 9.2, 8.43, 7.21, 5.81, 6.18, 6.6, 7.36, 7.95, 7.95, 8.66, 8.41, 7.93, 7.97, 7.98, 8.21, 7.71, 8.93, 10.75, 12.65, 10.43, 8.68, 6.4, 2.89, -0.0, 5.31, 6.0, -0.0, -5.6, -6.7, -3.68, -5.4, -10.0, -10.6, -6.71, -6.63, -7.44, -7.95, -7.92, -7.43, -6.4, -5.36, -4.81, -16.12, -16.12, -16.12, -15.85, -15.53, -15.28, -14.46, -13.65, -12.37, -12.13, -11.53, -10.2, -10.79, -8.53, -6.97, -6.45, -9.67, -11.62, -10.35, -9.17, -7.65, -7.28, -8.01, -6.0, -0.0, 2.6, 2.6, -0.0, -6.2, -8.22, -11.8, -13.59, -12.79, 0.0, 0.0, 0.0, -1.05, -1.75, -3.65, -5.98, -7.73, -10.07, -12.64, -15.32, -16.2, -14.35, -11.08, -4.71, 11.52, 12.37, 10.75, 9.89, 9.89, 9.12, 10.43, 9.33, 8.16, 7.66, 6.99, 6.18, 6.18, 7.68, 7.95, 9.21, 9.27, 9.57, 9.44, 10.11, 10.11, 9.52, 8.93, 8.43, 8.29, 9.12, 10.43, 8.18, 6.8, 6.09, 4.21, 0.0, 10.12, 9.48, 2.54, -0.0, -0.0, -0.0, -0.0, -11.18, -9.3, -6.94, -7.36, -8.46, -9.22, -9.22, -7.93, -5.28, -3.56, -1.77, -16.26, -16.26, -16.12, -15.57, -15.7, -15.14, -14.7, -13.89, -13.27, -12.0, -11.39, -11.02, -11.2, -9.67, -9.3, -6.97, -6.97, -7.24, -11.62, -8.53, -7.27, -6.98, -6.5, -6.41, -4.9, -0.0, -0.0, -0.0, -3.11, -9.3, -11.09, -12.39, -13.02, -15.18, -11.87, -6.44, -5.29, -5.32, -6.71, -9.1, -11.7, -13.59, -14.3, -11.92, -9.22, -6.15, -1.53, 6.4, 8.18, 7.59, 7.59, 8.43, 8.85, 9.71, 9.71, 9.8, 7.92, 7.43, 6.99, 5.99, 6.6, 8.2, 10.12, 10.3, 10.25, 10.43, 11.06, 11.06, 12.33, 11.83, 9.8, 7.67, 7.49, 8.18, 5.31, 2.72, 0.0, 2.01, 3.69, 2.72, 9.48, 9.48, -0.0, -0.0, -0.0, -0.0, 0.0, -5.2, -7.9, -7.69, -8.16, -8.46, -8.05, -6.9, 0.0, 6.0, 2.13, 0.0, -16.26, -16.26, -16.12, -15.72, -15.85, -15.7, -14.95, -14.49, -13.14, -12.27, -10.91, -10.87, -10.8, -10.4, -10.0, -10.4, -9.08, -6.45, -9.3, -11.21, -7.19, -6.44, -5.98, -5.77, -5.21, -4.75, -5.6, -3.82, -10.0, -10.28, -10.73, -10.6, -10.58, -11.87, -14.22, -12.79, -12.89, -9.8, -11.47, -12.78, -12.39, -10.34, -7.03, -4.74, -1.25, 1.25, 3.47, 3.47, 5.04, 6.29, 6.6, 6.4, 7.93, 9.71, 9.71, 8.46, 7.06, 7.06, 6.99, 5.99, 6.85, 8.51, 10.36, 11.42, 11.33, 12.19, 12.52, 12.19, 13.92, 13.73, 10.91, 8.68, 9.71, 9.36, 6.35, 0.0, -2.28, -1.42, 1.06, 4.24, -0.0, -0.0, -8.53, -0.0, -0.0, -5.2, -3.82, -3.68, -8.05, -8.16, -7.36, -5.8, 0.0, 12.96, 12.96, 10.73, 1.83, 0.0, -16.26, -16.26, -16.26, -15.72, -15.57, -15.7, -15.14, -14.36, -13.73, -12.52, -11.16, -9.78, -9.82, -9.97, -10.0, -10.0, -10.27, -9.67, -7.9, -11.62, -7.72, -7.64, -7.11, -6.65, -6.21, -7.73, -8.53, -10.35, -12.71, -12.07, -9.33, -9.97, -10.28, -10.7, -12.05, -13.39, -12.33, -10.24, -11.14, -11.25, -10.01, -9.31, -5.63, -1.19, 0.0, -0.92, 0.0, 1.19, 4.11, 5.31, 5.15, 5.63, 7.34, 9.31, 8.85, 7.59, 6.6, 6.6, 7.06, 6.4, 7.13, 9.48, 12.09, 12.29, 12.46, 12.52, 12.9, 11.7, 12.01, 11.69, 9.8, 9.0, 9.71, 9.95, 8.2, 5.56, 0.0, -2.13, 0.0, 4.81, -8.53, -10.4, -10.0, -5.2, -6.97, -11.62, -9.42, -6.9, -7.92, -7.36, -5.8, 0.0, 13.41, 10.79, 12.96, 0.0, -1.61, -2.45, -16.26, -16.26, -16.26, -15.72, -15.72, -15.57, -15.31, -14.95, -13.98, -12.76, -10.99, -9.58, -9.46, -7.9, -8.53, -8.58, -9.58, -9.67, -9.3, -10.27, -9.09, -8.66, -9.8, -9.26, -8.85, -9.46, -10.16, -11.45, -12.14, -10.41, -11.18, -6.95, -5.46, -8.4, -10.78, -12.63, -11.96, -10.73, -7.56, -8.23, -10.87, -11.26, -10.86, -9.33, -7.49, -3.42, 1.78, 6.8, 6.2, 5.46, 3.93, 6.88, 8.31, 8.57, 7.58, 6.73, 6.95, 6.95, 6.4, 5.73, 7.44, 10.18, 11.44, 12.7, 13.06, 11.7, 11.36, 9.88, 8.68, 7.49, 7.22, 7.3, 7.18, 5.81, 4.79, 5.37, 3.69, 2.91, 4.24, 3.53, -8.22, -11.62, -11.91, -11.21, -11.91, -12.42, -12.11, -9.5, -7.68, -7.79, -7.44, 9.48, 7.44, 7.44, 0.0, -2.54, -4.39, -3.82, -15.86, -15.86, -15.86, -15.86, -15.72, -15.57, -15.01, -14.44, -13.98, -12.65, -11.17, -10.0, -10.09, -8.22, -7.54, -6.44, -7.26, -8.53, -8.75, -7.56, -5.0, -11.18, -9.82, -10.98, -11.39, -11.03, -11.21, -11.62, -10.16, -10.0, -10.75, -11.62, -10.84, -8.38, -9.3, -10.17, -10.68, -9.58, -8.01, -9.08, -10.0, -10.48, -10.94, -11.53, -10.43, 11.38, 13.42, 11.38, 9.6, 7.93, 4.65, 6.9, 8.05, 8.05, 7.34, 7.34, 6.73, 6.2, 5.55, 5.8, 6.7, 9.48, 11.68, 11.88, 12.22, 11.19, 8.74, 6.35, 4.05, 3.07, 4.02, 4.12, 2.28, 1.04, 1.01, 1.72, 4.27, 4.98, 4.36, 2.49, 0.86, -12.22, -12.07, -12.52, -12.44, -12.45, -11.5, -10.09, -7.78, -7.78, -0.0, 4.1, 7.44, 9.8, 0.0, -3.96, -4.75, -5.2, -15.86, -15.86, -15.86, -15.86, -15.72, -15.72, -15.18, -14.62, -13.87, -12.85, -11.44, -10.8, -12.14, -11.44, -10.24, -9.27, -7.73, -7.85, -7.56, -7.15, -2.71, 0.0, 0.0, -11.84, -10.18, -11.2, -9.04, -8.58, -9.08, -9.6, -11.57, -12.07, -12.52, -11.45, -10.0, -8.72, -9.86, -9.86, -8.22, -3.53, -5.6, -8.85, -7.51, -7.44, 12.79, 13.59, 14.39, 13.59, 11.38, 10.75, 9.22, 9.17, 8.59, 8.05, 8.31, 7.69, 6.2, 4.99, 4.81, 4.12, 6.08, 10.75, 11.87, 13.02, 12.36, 10.19, 7.21, 4.62, 2.43, 1.83, 2.88, 2.34, 1.1, 0.0, 0.0, 0.0, 1.15, 1.83, 1.57, 1.44, 2.37, -10.47, -14.22, -13.86, -12.14, -11.72, -11.6, -9.96, -8.85, 0.0, 5.8, 4.1, -0.0, 0.0, -3.25, -3.96, -4.08, -5.99, -15.47, -15.86, -15.86, -15.86, -15.86, -15.72, -15.18, -14.62, -13.68, -12.85, -12.38, -12.26, -11.46, -12.08, -12.3, -11.76, -11.6, -11.8, -11.3, -10.27, -10.18, -10.0, -5.2, -3.68, -10.84, -8.73, -8.54, -9.3, -10.99, -11.56, -12.52, -14.3, -13.86, -12.07, -11.53, -10.79, -7.59, -5.59, 0.0, 11.87, 8.53, 0.0, 0.0, 8.22, 10.4, 11.12, 11.5, 12.27, 12.02, 13.27, 12.0, 11.2, 9.31, 8.31, 8.31, 6.4, 4.74, 2.93, 2.71, 3.29, 7.82, 13.46, 14.51, 13.97, 13.1, 11.35, 8.0, 5.98, 3.81, 0.0, 0.0, 0.0, 0.0, 0.0, 0.0, -0.92, -2.2, -2.82, -2.22, -0.75, 0.0, 0.0, -16.54, -15.43, -13.86, -13.01, -12.39, -11.53, 0.0, 12.96, 0.0, 0.0, -11.2, -12.96, -7.78, -4.93, -5.6, -6.21, -15.47, -15.47, -15.86, -15.86, -15.86, -15.72, -15.33, -14.4, -13.85, -13.12, -12.47, -12.47, -12.47, -12.5, -12.38, -12.82, -14.18, -13.5, -14.13, -14.44, -15.6, -15.65, -14.75, -8.85, 0.0, -5.95, -8.23, -8.43, -8.93, -12.27, -12.07, -9.64, -9.83, -9.7, -9.54, -11.46, -8.22, -3.68, 10.4, 11.87, 11.6, 12.52, 11.62, 12.07, 10.4, 10.79, 10.8, 10.41, 10.79, 11.64, 12.0, 10.47, 9.66, 7.82, 7.82, 5.65, 4.01, 1.06, 0.0, 3.25, 15.14, 16.34, 15.11, 14.39, 14.39, 12.64, 10.66, 7.26, 4.18, 0.0, -2.48, -2.89, -2.8, -2.97, -2.8, -2.33, -3.68, -5.35, -6.4, -5.99, -4.07, -0.82, 0.0, -16.99, 0.0, 0.0, 0.0, 0.0, 10.12, 0.0, 0.0, -12.52, -12.52, -12.52, -9.42, -7.54, -6.87, -7.19, -15.47, -15.47, -15.86, -15.86, -15.86, -15.6, -15.06, -14.4, -14.24, -13.3, -12.74, -13.03, -13.23, -12.27, -10.81, -11.12, -10.4, -11.54, -12.66, -13.56, -14.27, -14.64, -11.44, -0.0, 11.99, 8.85, -0.0, 6.01, -0.0, -10.41, -10.96, -4.8, 8.93, -0.0, -7.27, -10.52, -10.73, -0.0, -0.0, 10.8, 11.2, 9.66, 8.22, 10.4, 10.73, 9.97, 10.04, 8.85, 9.17, 7.69, 5.31, 6.14, 5.16, 4.88, 6.08, 3.44, 3.06, 1.56, 0.0, 13.44, 17.88, 17.56, 16.54, 15.71, 15.71, 16.3, 14.85, 13.07, 6.36, 0.0, -2.89, -3.36, -4.66, -5.19, -4.1, -3.76, -3.91, -7.06, -8.68, -8.68, -7.82, -3.49, 0.0, 0.0, 0.0, 0.0, 0.0, 0.0, 0.0, 0.0, 0.0, -11.62, -11.62, -11.62, -11.2, -8.44, -7.54, -8.1, -15.47, -15.47, -15.47, -15.99, -15.99, -15.6, -15.06, -14.67, -14.4, -13.85, -13.3, -13.12, -13.12, -12.54, -11.72, -10.13, -9.84, -10.79, -11.99, -13.15, -14.03, -14.75, -4.81, 3.58, 6.4, 9.8, 10.73, 11.6, 11.09, 4.4, -0.0, 4.15, 6.44, 6.17, 2.49, -0.0, -0.0, -0.0, -0.0, 5.0, 8.22, 8.22, 6.71, 6.95, 9.2, 10.73, 8.22, 0.0, 0.0, -3.25, -4.65, -4.98, -5.63, -6.8, -5.37, -3.01, 0.0, 5.53, 0.0, 10.8, 15.97, 16.15, 17.33, 16.09, 18.33, 19.34, 17.88, 17.7, 13.64, 14.55, 8.8, 3.45, -2.35, -4.58, -4.78, -4.81, -5.67, -6.54, -6.34, -6.14, -5.09, -6.14, -4.62, -4.01, 0.0, 0.0, -3.86, -4.34, 0.0, 0.0, 0.0, -5.2, -11.18, -11.62, -11.2, -9.17, -8.1, -9.48, -15.47, -15.47, -15.99, -15.99, -15.99, -15.6, -15.21, -14.67, -14.79, -14.24, -13.3, -13.12, -13.12, -13.12, -12.24, -10.39, -9.48, -9.48, -10.3, -11.53, -11.9, -11.17, -13.99, -0.0, -0.0, 3.47, 7.13, 8.66, 8.59, 7.28, 4.8, 2.1, 2.71, 3.11, 3.11, -0.0, -0.0, -0.0, 2.49, 6.44, 6.44, 6.17, 5.95, 7.27, 8.8, 9.2, 9.39, 0.0, -8.22, -8.85, -8.85, -8.53, -9.42, -9.66, -8.85, -7.51, -4.95, 0.0, 0.0, 13.86, 12.39, 15.65, 16.54, 16.99, 16.54, 16.54, 16.19, 14.66, 15.17, 17.16, 18.7, 15.8, 6.81, -4.6, -6.2, -7.16, -6.52, 0.0, 0.0, 0.0, -5.37, -9.92, -8.68, -7.28, -2.8, -1.5, -3.88, -6.81, -7.8, 0.0, 0.0, 0.0, -7.9, -11.2, -10.73, -11.12, -9.17, -12.96, -15.47, -15.59, -15.99, -15.99, -15.99, -16.14, -15.6, -15.06, -14.67, -14.13, -13.58, -13.02, -13.02, -13.02, -12.45, -11.23, -9.77, -9.8, -9.4, -9.8, -9.02, -8.66, -8.31, -10.12, -14.3, -0.0, 3.36, 5.15, 6.0, 6.65, 4.93, 3.25, -0.0, -0.0, -0.0, -0.0, -0.0, -0.0, 3.53, 5.9, 6.17, 6.44, 5.46, 6.95, 6.95, 8.8, 8.8, 7.27, 0.0, 0.0, -8.22, -6.2, -3.39, 0.0, 0.0, 0.0, -10.4, -7.34, -1.66, 16.54, 11.6, 9.17, 13.15, 13.57, 13.19, 15.2, 0.0, 7.6, 13.39, 17.99, 14.54, 11.9, 4.03, -6.94, -10.47, -7.4, 3.42, 10.73, 6.31, 0.0, -7.8, -12.01, -10.18, -7.11, -7.19, -7.38, -4.37, -2.65, 0.0, 0.0, 0.0, 0.0, -2.82, -6.94, -7.44, -9.17, -12.96, -12.96, -15.47, -15.59, -15.99, -15.99, -15.99, -16.14, -15.6, -15.6, -14.67, -14.13, -13.58, -13.02, -13.02, -12.65, -12.37, -11.52, -10.69, -9.78, -9.8, -9.02, -8.95, -7.79, -7.69, -9.06, -10.43, -14.75, -0.0, 4.38, 4.98, 6.0, 3.68, 3.82, 2.02, -0.0, -0.0, 4.0, 3.25, 5.7, 7.59, 6.17, 5.63, 5.21, 4.6, 6.95, 6.95, 6.64, 6.95, 7.27, 9.2, 7.27, 0.0, 0.0, 8.22, 10.73, 9.39, 0.0, -9.2, -6.45, 0.0, 14.84, 12.07, 8.22, 8.22, 8.53, 0.0, 0.0, -12.96, 0.0, 15.27, 15.74, 11.04, 0.0, -6.97, -18.21, -15.2, 16.39, 16.48, 13.28, 9.43, 6.81, 0.0, -10.17, -10.19, -6.6, -2.93, -3.53, -4.24, -2.13, 0.0, 0.0, 0.0, -3.14, -3.14, 0.0, 0.0, -3.82, -5.6, -5.6, -15.47, -15.59, -15.99, -15.99, -15.99, -16.39, -16.14, -15.6, -15.06, -14.51, -13.58, -13.39, -13.02, -12.65, -12.0, -11.52, -10.94, -10.36, -9.78, -9.15, -8.78, -8.38, -8.29, -7.69, -7.93, -7.93, -8.18, -10.43, -0.0, -0.0, 2.63, 4.1, 4.15, 5.0, 4.96, 4.2, 3.65, 4.8, 5.7, 5.9, 4.4, 2.83, 5.7, 4.96, 6.95, 6.95, 7.27, 7.27, 7.27, 9.2, 9.2, 9.6, 11.18, 10.73, 10.73, 0.0, 0.0, 7.59, 12.07, 12.96, 12.52, 7.9, 4.8, 4.8, 7.59, 0.0, 0.0, -11.62, 0.0, 0.0, -5.31, -10.17, -17.88, -19.51, -5.65, 18.41, 18.65, 17.19, 16.01, 16.79, 15.33, 9.67, 0.0, -4.81, 0.0, 0.0, 0.0, 0.0, 0.0, -2.28, -1.83, -2.2, -2.45, -2.54, -2.54, -2.37, -5.6, -5.6, -15.47, -15.47, -15.99, -15.99, -15.99, -16.39, -16.14, -15.6, -15.06, -14.67, -14.13, -13.58, -13.02, -12.16, -11.8, -11.23, -10.94, -10.69, -10.09, -9.17, -8.85, -8.46, -7.93, -7.03, -5.16, -4.89, -5.64, -5.99, -9.12, -13.59, -0.0, 2.63, 3.96, 5.0, 5.95, 4.6, 3.11, 2.02, 2.39, -0.0, -0.0, -0.0, 3.11, 3.25, 4.6, 7.27, 7.59, 4.6, 7.27, 9.2, 9.2, 10.28, 10.28, 10.28, 10.28, 7.27, 9.2, 9.6, 7.9, 0.0, 0.0, 11.62, 4.8, 7.59, 7.59, 6.95, 8.4, -9.2, -11.21, -12.52, -17.99, -17.59, -16.37, -17.17, -0.0, 14.57, 17.88, 16.41, 16.11, 15.02, 13.39, 11.17, 8.0, 0.0, 0.0, -8.85, -9.17, 0.0, -6.0, -4.52, -3.93, -2.13, -3.68, -4.48, -2.54, -2.54, -2.45, -2.45, -15.47, -15.47, -15.59, -15.59, -15.99, -15.99, -16.14, -15.6, -15.45, -15.06, -14.13, -13.95, -13.3, -12.37, -12.09, -11.54, -10.65, -10.69, -9.77, -8.24, -8.15, -8.51, -8.66, -8.23, -7.28, -6.2, -6.67, -7.69, -8.05, -10.82, -13.86, -0.0, 2.45, 5.4, 5.54, 4.36, 1.84, -0.0, -0.0, -0.0, -0.0, -0.0, -0.0, -0.0, -0.0, -0.0, 7.59, 7.27, 7.27, 9.2, 9.75, 10.28, 10.28, 10.28, 10.28, 9.75, 7.27, 5.0, 0.0, 0.0, 0.0, 11.62, 7.9, 8.18, 7.68, 6.64, 7.81, 0.0, -6.7, -7.93, -3.51, 2.22, 2.1, 0.0, 0.0, 15.65, 14.39, 6.14, 6.69, 7.8, 5.37, 2.87, 0.0, -11.2, -12.72, -13.01, -12.45, -10.79, -8.38, -9.48, -7.36, -4.24, -3.82, -5.98, -7.13, -5.31, -5.15, -5.15, -15.47, -15.47, -15.47, -15.59, -15.99, -15.99, -15.74, -15.6, -15.33, -14.78, -14.51, -14.13, -13.3, -12.73, -12.37, -11.16, -10.65, -10.59, -9.62, -8.85, -9.16, -8.9, -9.58, -9.8, -10.23, -9.76, -9.84, -10.02, -10.94, -10.99, -12.35, -11.87, -0.0, 4.48, 3.19, 2.6, 2.1, -0.0, -0.0, -0.0, -0.0, 1.33, 3.07, 3.53, 2.71, -0.0, 4.6, 7.27, 7.27, 6.95, 9.33, 9.75, 10.73, 11.18, 9.83, 9.33, 7.9, 3.39, 0.0, 0.0, 0.0, 7.59, 7.59, 8.93, 7.27, 7.27, 7.27, 11.18, 2.37, 2.91, 3.72, 5.55, 5.35, 2.5, -2.78, -10.59, -14.39, -12.36, -4.54, 0.0, 0.0, 0.0, -2.5, -11.16, -13.44, -13.15, -12.72, -12.04, -10.79, -11.2, -11.99, -8.38, -8.1, -8.1, -10.82, -10.75, -7.59, -7.59, -15.47, -15.47, -15.47, -15.47, -15.59, -15.35, -15.74, -15.74, -15.33, -15.16, -14.23, -13.85, -13.3, -12.73, -12.45, -11.52, -11.23, -10.59, -10.41, -11.03, -10.54, -10.42, -10.72, -10.75, -11.15, -11.64, -11.97, -11.38, -10.8, -10.62, -11.28, -11.62, -8.22, -0.0, 2.28, 1.84, -0.0, -0.0, -0.0, 1.23, 1.39, 2.71, 4.4, 6.7, 6.97, 5.4, 4.4, 7.27, 7.27, 8.55, 9.33, 9.75, 10.18, 11.18, 10.73, 9.75, 10.0, 9.3, 0.0, -0.0, 5.0, 6.2, 5.95, 6.2, 5.7, 5.95, 9.6, 12.07, 9.17, 9.8, 10.47, 9.43, 7.0, 1.39, -4.12, -12.96, -15.99, -15.23, -13.76, -10.75, -4.3, 0.0, 0.0, 0.0, 0.0, -11.99, -13.41, -13.41, -9.48, -9.66, -11.87, -11.99, -11.17, -11.5, -13.15, -12.65, -11.52, -11.52, -15.07, -15.47, -15.47, -15.47, -15.35, -15.35, -15.35, -15.74, -15.33, -14.78, -14.23, -13.85, -13.48, -12.93, -12.45, -11.87, -11.28, -10.88, -10.88, -11.58, -11.33, -10.69, -10.99, -10.73, -10.77, -10.86, -11.44, -11.12, -11.03, -11.45, -11.78, -11.51, -11.62, -5.2, -0.0, -0.0, -0.0, -0.0, -0.0, 1.58, 3.07, 5.0, 6.2, 8.53, 8.73, 7.59, 7.59, 6.95, 9.75, 9.75, 9.75, 10.18, 10.18, 10.6, 10.73, 11.18, 11.62, 12.52, 8.22, -0.0, 3.25, 7.59, 7.9, 7.9, 9.3, 10.0, 10.4, 12.07, 12.96, 14.47, 14.84, 14.22, 11.94, 7.63, -9.46, -11.95, -15.66, -17.16, -16.6, -15.12, -12.22, 0.0, 7.2, 10.75, 11.17, 10.73, 9.48, 4.52, 0.0, -7.24, -10.8, -12.72, -12.79, -12.79, -14.03, -13.28, -12.65, -12.65, -15.07, -15.07, -15.07, -15.21, -15.21, -15.35, -15.35, -15.35, -14.95, -14.78, -14.4, -13.85, -13.48, -13.01, -12.45, -11.87, -11.52, -10.94, -11.28, -11.33, -11.05, -10.42, -10.06, -10.01, -10.65, -10.47, -10.22, -10.82, -11.33, -11.72, -11.3, -11.18, -11.4, -11.62, -8.22, -5.2, -3.68, -2.82, -0.0, 2.28, 4.32, 5.98, 8.22, 9.08, 9.08, 9.58, 7.59, 8.91, 8.91, 9.75, 9.75, 10.18, 8.93, 10.6, 10.18, 10.41, 10.96, 12.71, 12.96, 9.39, 8.4, 8.55, 11.28, 11.62, 10.6, 10.84, 11.62, 11.18, 11.62, 12.52, 9.8, 0.0, 14.63, 12.39, -8.05, -9.24, -12.3, -14.05, -16.21, -16.12, -13.72, -11.06, 13.02, 13.99, 12.27, 10.82, 8.66, 7.36, 4.81, 2.5, -10.12, -11.99, -11.9, -13.57, -14.3, -14.03, -12.27, -12.27, -15.07, -15.07, -15.07, -15.07, -15.21, -15.21, -15.35, -15.35, -14.95, -14.95, -14.13, -13.85, -13.48, -13.21, -13.01, -12.45, -11.87, -11.28, -10.99, -11.03, -10.75, -9.8, -9.48, -9.48, -9.8, -10.47, -9.85, -10.25, -10.02, -10.99, -11.5, -11.45, -11.4, -10.84, -11.18, -11.18, -10.0, -7.9, -0.0, -0.0, 6.45, 8.22, 9.3, 9.97, 10.4, 10.0, 11.87, 10.6, 10.73, 11.18, 11.62, 10.0, 7.59, 8.93, 8.55, 9.2, 9.2, 10.8, 12.96, 11.03, 6.32, 8.91, 11.18, 11.62, 11.18, 12.07, 12.07, 12.52, 11.18, 11.18, -11.18, -14.54, -14.38, 19.91, -0.0, -13.41, -13.23, -12.3, -13.7, -14.66, -13.75, -14.3, 0.0, 10.12, 8.18, 5.48, 5.48, 5.48, 7.82, 11.38, -3.36, -10.73, -12.39, -11.53, -14.03, -13.57, -13.15, -13.15, -15.07, -15.07, -15.07, -14.82, -14.82, -14.82, -15.21, -15.21, -14.95, -14.68, -14.13, -13.58, -13.21, -13.21, -13.01, -12.45, -11.58, -11.58, -11.33, -11.03, -10.45, -10.13, -9.76, -9.46, -9.83, -9.84, -9.85, -9.89, -9.48, -9.48, -10.55, -11.6, -11.62, -11.28, -10.6, -10.73, -11.18, -10.0, -7.9, -0.0, 10.4, 11.03, 10.84, 10.84, 10.96, 9.96, 10.79, 10.52, 9.7, 9.7, 10.58, 11.87, 7.59, 7.59, 7.27, 7.27, 8.23, 6.95, 9.67, 11.87, 6.2, 5.63, 9.33, 10.73, 11.62, 12.07, 12.07, 12.07, 12.07, -11.62, -11.5, -11.06, -6.93, 0.0, 0.0, 0.0, 0.0, -13.99, -12.79, -11.99, -12.39, -12.87, -12.72, -9.48, -6.6, 0.0, 0.0, 6.6, 14.75, 14.84, 14.75, 0.0, -13.88, -14.31, -13.15, -13.86, -13.86, -13.86, -14.67, -14.67, -14.67, -14.82, -14.82, -14.82, -14.82, -14.82, -14.95, -14.95, -14.13, -13.94, -13.58, -13.01, -13.01, -12.8, -12.16, -11.92, -11.03, -11.03, -10.45, -10.43, -10.1, -9.76, -9.46, -9.48, -9.17, -9.17, -9.17, -8.67, -9.17, -9.17, -9.77, -9.66, -9.3, -9.3, -10.18, -10.73, -11.18, 0.0, 11.18, 11.62, 11.18, 11.18, 10.73, 10.73, 11.62, 10.28, 9.83, 9.7, 10.75, 10.6, 10.41, 8.53, 7.9, 7.59, 6.17, 5.9, 5.7, 10.4, 10.04, 8.53, 8.4, 9.83, 11.18, 12.07, 12.52, 12.52, 12.96, 0.0, -10.04, -8.94, -4.88, -1.85, 2.26, 9.8, 6.93, -2.94, -9.97, -9.97, -10.3, -9.8, -11.87, -11.53, 0.0, 0.0, 10.75, 13.99, 14.75, 15.2, 15.77, 12.71, 0.0, -15.65, -13.86, -14.3, -13.59, -13.59, -14.54, -14.54, -14.67, -14.43, -14.82, -14.82, -14.82, -14.82, -14.57, -14.4, -14.13, -13.94, -13.58, -13.01, -13.01, -12.45, -12.51, -11.63, -11.63, -11.06, -10.76, -10.13, -9.79, -9.73, -9.71, -9.08, -8.73, -8.79, -8.76, -8.3, -8.21, -7.36, -6.72, -6.21, -5.86, -5.2, -4.58, -3.53, -2.1, 0.0, 3.53, 8.22, 8.22, 10.41, 10.08, 10.96, 10.96, 10.28, 9.83, 9.83, 10.62, 10.75, 8.93, 8.37, 7.9, 5.95, 4.8, 4.6, 2.28, 2.49, 10.8, 10.84, 10.84, 10.41, 12.52, 11.62, 12.07, 12.96, 12.96, -9.17, -10.79, -8.38, -7.16, -4.47, 1.82, 10.49, 7.77, 0.0, -8.43, -9.33, -9.67, -9.84, -10.99, -12.3, -0.0, 10.43, 15.65, 15.18, 15.2, 14.75, 10.75, 3.24, 7.8, -5.23, -15.2, -13.88, -13.88, -13.88, -14.54, -14.54, -14.29, -14.29, -14.67, -14.67, -14.4, -14.4, -14.4, -14.4, -14.13, -13.66, -13.3, -13.01, -12.45, -12.45, -12.16, -11.96, -11.67, -11.38, -10.76, -9.84, -9.79, -9.8, -9.76, -9.42, -9.08, -8.05, -7.4, -7.28, -7.12, -6.7, -6.08, -5.4, -5.78, -4.81, -4.32, -3.92, -1.58, 0.0, 2.19, 4.32, 6.71, 7.27, 7.68, 8.38, 7.27, 9.97, 9.64, 10.28, 11.18, 10.62, 10.32, 9.2, 8.73, 8.22, 6.2, 4.8, 3.82, 3.82, 7.9, 10.6, 10.84, 11.71, 11.62, 12.52, 13.41, 0.0, -12.07, -9.17, -7.93, -7.36, -7.79, -8.05, -6.8, -4.77, -4.65, -3.16, -13.44, -10.14, -10.0, -9.0, -10.09, -12.52, -0.0, -0.0, 10.43, 15.65, 15.18, 13.19, 0.0, -4.95, 4.01, 2.11, -2.72, -5.81, -5.64, -5.64, -14.15, -14.15, -14.29, -14.29, -14.29, -14.4, -14.4, -14.4, -14.03, -14.03, -14.13, -13.94, -13.09, -12.73, -12.45, -12.45, -11.92, -11.63, -11.67, -11.38, -10.47, -10.13, -9.79, -9.14, -9.16, -8.51, -8.15, -8.05, -7.09, -6.94, -6.53, -6.33, -5.72, -5.72, -4.87, -4.47, -3.97, -3.21, -1.23, 0.0, 1.58, 3.53, 5.75, 6.7, 6.7, 6.58, 5.86, 6.95, 8.23, 10.08, 11.18, 10.73, 10.28, 9.89, 9.6, 8.73, 8.53, 6.97, 3.98, 5.75, 6.71, 9.3, 12.07, 12.52, 12.07, 12.96, 13.86, 12.52, -10.4, -11.62, -4.38, -2.09, -2.72, -7.44, -11.57, -14.66, -16.63, -17.85, -18.78, -15.19, -9.42, -7.64, -8.85, -5.4, 12.96, 9.48, 9.48, 10.43, 15.2, 0.0, -10.43, -10.75, -5.81, 1.78, 1.88, 0.0, 0.0, 0.0, -14.15, -14.15, -14.29, -14.29, -14.29, -14.03, -14.03, -14.03, -14.03, -14.03, -14.03, -13.58, -13.09, -12.73, -12.51, -12.16, -11.92, -11.63, -11.06, -11.06, -10.47, -10.13, -9.84, -9.5, -8.86, -8.51, -7.85, -7.48, -6.8, -6.63, -6.44, -5.68, -5.99, -5.2, -4.87, -4.17, -3.68, -2.94, -1.11, 0.0, 0.0, 1.52, 3.07, 4.8, 6.2, 6.45, 5.0, 5.7, 7.27, 9.58, 9.58, 9.2, 10.18, 10.28, 9.86, 9.6, 8.34, 7.9, 5.98, 3.53, 3.98, 3.53, -0.0, 5.2, 10.8, 12.27, 13.41, 14.3, 0.0, -9.83, -7.59, -2.63, 0.0, -1.21, -9.41, -13.59, -13.91, -14.95, -18.33, -16.74, -14.86, -9.88, -6.76, 0.0, 2.28, 4.52, 9.8, -0.0, -0.0, -10.43, -14.75, -13.99, -7.0, 0.0, 0.0, 0.0, 1.93, 1.93, -14.15, -14.15, -13.9, -14.29, -14.29, -14.03, -14.03, -14.03, -13.85, -13.85, -13.85, -13.85, -13.09, -13.09, -12.51, -12.16, -11.92, -11.36, -11.36, -10.76, -10.47, -9.84, -9.84, -9.5, -8.86, -8.23, -7.59, -6.94, -6.35, -5.86, -5.86, -6.14, -5.4, -5.1, -4.58, -3.76, -3.29, -1.84, -0.97, 0.0, 0.0, 1.18, 2.6, 2.95, 4.8, 3.82, 5.4, 4.23, 5.7, 6.98, 7.59, 8.03, 8.03, 10.18, 10.73, 9.86, 9.4, 10.16, 6.44, 3.53, 2.19, -0.0, -0.0, 8.22, 8.53, 9.3, 10.4, 12.96, 3.82, 0.0, -2.69, -5.0, 0.0, 4.47, 0.0, -7.56, -8.67, -7.82, -8.51, -7.3, -15.49, -16.48, -5.8, 2.2, 3.36, 1.77, 2.02, 0.0, -0.0, -0.0, -0.0, -0.0, -6.8, -3.07, 0.0, 0.0, 0.0, 0.0, -14.01, -14.01, -13.75, -13.75, -13.75, -13.85, -13.85, -13.85, -13.48, -13.48, -13.48, -13.48, -13.21, -12.73, -12.51, -12.22, -11.63, -11.36, -11.36, -10.45, -10.13, -9.84, -9.22, -9.21, -8.59, -8.23, -7.59, -6.96, -6.53, -5.44, -5.6, -5.86, -5.33, -5.4, -4.48, -3.91, -3.07, -2.51, -0.89, 0.0, 0.0, 0.0, 1.18, 2.33, 2.6, 2.71, 2.71, 3.77, 4.23, 5.54, 5.95, 6.42, 7.59, 8.38, 8.82, 10.28, 10.84, 10.6, 9.1, 5.98, 2.93, -0.0, 6.45, 7.9, 8.22, 7.9, 7.27, 8.22, 0.0, 0.0, 3.25, 0.0, -9.8, 0.0, 1.61, -1.23, -6.51, -6.71, -6.2, -4.34, -5.04, -3.51, 0.0, 4.52, 2.64, 1.38, 1.56, 0.0, 0.0, 13.86, 9.8, 10.12, 0.0, 0.0, 0.0, 0.0, 0.0, 0.0, -13.36, -13.36, -13.75, -13.75, -13.75, -13.48, -13.48, -13.48, -13.48, -13.48, -13.48, -13.3, -13.3, -13.01, -12.51, -11.96, -11.63, -11.06, -11.06, -10.76, -10.13, -10.13, -9.5, -8.86, -8.87, -8.23, -7.6, -7.22, -6.56, -6.15, -5.7, -5.65, -5.14, -4.84, -4.24, -3.68, -3.19, -2.34, -1.7, -0.82, 0.0, 0.0, 0.97, 1.07, 1.11, 1.18, 2.33, 2.23, 3.39, 3.77, 4.05, 4.6, 6.98, 6.7, 8.03, 9.6, 10.73, 10.41, 9.97, 9.32, 6.87, 7.59, 10.4, 8.93, 7.9, 7.9, 6.44, 4.6, -0.0, 0.0, 8.53, 11.18, -11.62, -10.3, -6.83, -1.48, -2.89, 0.0, 0.0, 0.0, 1.46, 1.69, 1.83, 1.65, 1.18, 0.0, 0.0, 0.0, 0.0, 0.0, 12.96, 13.41, 0.0, 0.0, 0.0, 0.0, 2.15, 2.15, -13.36, -13.36, -13.36, -13.75, -13.75, -13.48, -13.48, -13.48, -13.48, -13.3, -13.3, -12.93, -12.93, -12.65, -12.51, -11.96, -11.63, -11.06, -10.76, -10.76, -10.13, -9.79, -9.5, -8.86, -8.87, -8.23, -7.6, -7.6, -6.94, -6.29, -5.44, -5.2, -4.66, -4.84, -4.24, -3.68, -2.99, -2.44, -1.58, -0.76, 0.0, 0.0, 0.0, 0.97, 0.97, 1.02, 2.02, 2.02, 2.1, 2.33, 2.6, 4.4, 4.8, 6.42, 6.42, 8.03, 9.75, 9.83, 10.2, 10.41, 10.41, 10.0, 10.0, 10.6, 8.55, 7.59, 6.44, 4.8, 5.2, 12.52, 11.87, 11.2, 0.0, -9.33, -12.19, -5.94, 0.0, 7.0, 7.34, 4.89, 3.37, 1.18, 0.0, 0.0, 0.0, -1.07, 0.0, 0.0, 0.0, 0.0, 12.52, 12.52, 0.0, 0.0, 0.0, 0.0, 0.0, 0.0, -13.36, -13.36, -13.36, -13.36, -13.2, -12.93, -12.93, -13.3, -12.93, -12.93, -12.93, -12.93, -12.65, -12.45, -12.09, -11.92, -11.36, -11.06, -10.76, -10.76, -9.84, -9.49, -9.22, -9.14, -8.49, -8.23, -7.87, -7.6, -6.94, -6.53, -6.12, -4.95, -4.66, -4.08, -3.68, -3.68, -2.99, -2.28, -1.58, -0.8, 0.0, 0.0, 0.0, 0.0, 0.93, 0.93, 0.89, 1.02, 1.02, 1.07, 2.33, 2.71, 2.95, 4.6, 6.7, 7.27, 8.43, 9.7, 9.83, 9.89, 8.18, 9.67, 9.6, 10.0, 10.0, 7.9, 5.95, 6.2, 6.2, 8.53, 12.52, 9.8, 0.0, -4.6, -6.91, -3.73, 2.55, 6.44, 5.96, 4.1, 1.02, -1.06, -2.21, -2.5, -1.42, 0.0, 0.0, 0.0, 1.9, 3.04, 5.6, 0.0, 0.0, 0.0, -4.1, 0.0, 0.0, 0.0, -12.82, -12.82, -13.2, -13.2, -13.2, -12.93, -12.93, -12.93, -12.93, -12.93, -12.93, -12.73, -12.45, -12.09, -11.87, -11.87, -11.33, -11.36, -10.76, -10.13, -9.84, -9.49, -9.22, -8.85, -8.49, -8.51, -7.85, -7.6, -7.22, -6.8, -6.35, -5.65, -5.2, -4.48, -4.15, -3.53, -2.88, -2.34, -1.58, -0.86, -0.82, 0.0, 0.0, 0.0, 0.89, 0.89, 0.89, 0.93, 1.02, 1.07, 1.18, 1.33, 2.82, 3.39, 4.6, 6.14, 8.43, 9.33, 9.7, 9.89, 9.45, 6.98, 7.59, 7.27, 9.2, 10.0, 8.55, 8.93, 9.3, 7.9, 9.17, 12.96, 7.0, 2.58, 0.0, -1.16, 1.16, 3.42, 3.35, 0.87, -0.96, -2.13, -3.41, -4.1, 0.0, 0.0, 2.13, 2.06, 3.96, 4.1, 4.81, 4.1, 0.0, 0.0, -3.96, 0.0, 0.0, 0.0, -13.09, -13.09, -12.82, -12.82, -12.82, -12.93, -12.93, -12.93, -12.73, -12.73, -12.73, -12.37, -11.87, -11.87, -11.87, -11.52, -11.33, -11.03, -10.75, -10.13, -9.84, -9.49, -8.85, -8.85, -8.49, -8.22, -7.85, -7.59, -7.22, -6.56, -6.12, -5.92, -5.4, -4.66, -4.15, -3.53, -3.07, -2.34, -2.34, -1.7, -0.89, 0.0, 0.0, 0.0, 0.93, 0.0, 0.0, 0.0, 0.0, 0.0, 0.0, 1.33, 1.45, 2.95, 3.11, 5.06, 6.95, 8.05, 9.64, 9.7, 9.04, 8.4, 7.27, 6.95, 9.6, 10.0, 8.18, 9.2, 10.18, 10.18, 10.4, 12.3, 13.02, 5.94, 1.31, -2.53, -3.65, -3.56, -4.85, -4.18, -3.87, -3.28, -3.25, -2.37, 2.93, 4.81, 4.24, 4.1, 5.8, 4.1, 4.1, 2.63, 0.0, -6.0, -5.8, -4.1, 0.0, 0.0, -13.09, -13.09, -12.82, -12.82, -12.65, -12.37, -12.37, -12.37, -12.37, -12.37, -12.37, -11.87, -11.87, -11.52, -11.52, -11.28, -11.28, -10.72, -10.43, -9.84, -10.13, -9.22, -8.85, -8.85, -8.2, -7.83, -7.83, -7.44, -7.19, -6.56, -6.12, -5.92, -5.4, -4.66, -4.92, -4.15, -3.76, -3.07, -2.51, -1.63, -1.76, -0.89, 0.0, 0.0, 0.98, 0.0, 0.0, 0.0, 0.0, 0.0, 0.0, 0.0, 1.45, 1.69, 3.11, 4.83, 5.63, 7.51, 8.4, 9.83, 9.04, 8.63, 10.18, 8.4, 8.8, 10.18, 10.18, 8.55, 10.18, 10.6, 10.0, 9.17, 10.43, 1.73, 2.67, 1.52, -4.66, -8.94, -9.97, -8.25, -5.37, -3.42, -1.68, 0.0, 6.2, 6.9, 6.2, 5.46, 5.28, 3.68, 3.68, 2.2, 0.0, 0.0, -6.0, -7.19, -4.24, 0.0, -12.7, -12.7, -12.27, -12.65, -12.65, -12.37, -12.37, -12.37, -12.37, -12.37, -11.52, -11.52, -11.52, -11.52, -11.28, -11.28, -11.28, -10.72, -10.72, -10.13, -10.13, -9.5, -8.85, -8.58, -8.2, -7.83, -7.83, -7.16, -6.76, -6.53, -6.12, -5.65, -5.4, -5.4, -4.92, -4.32, -3.76, -3.07, -3.29, -2.41, -1.76, -0.93, -0.93, 0.0, 0.0, 0.0, 0.0, 0.0, 0.0, 0.0, 0.0, 0.0, 1.33, 1.54, 3.49, 3.49, 5.36, 6.32, 6.64, 9.39, 9.46, 8.63, 6.8, 9.33, 9.75, 9.75, 8.18, 8.55, 8.93, 10.6, 11.18, 0.0, -9.8, 0.0, 3.86, 11.34, 7.63, -3.9, -7.68, -6.88, -6.0, -3.25, 0.0, 4.24, 5.8, 5.46, 5.02, 5.18, 3.47, 3.01, 3.36, 1.72, 0.0, 0.0, -4.24, -9.48, -9.17, -4.24, -12.54, -12.54, -12.27, -12.27, -12.27, -12.0, -12.0, -12.0, -11.8, -11.8, -11.52, -11.52, -11.52, -11.28, -11.28, -11.28, -10.94, -10.4, -10.12, -10.12, -9.82, -9.5, -8.86, -8.86, -8.22, -7.83, -7.57, -7.16, -6.5, -6.76, -6.08, -5.44, -5.44, -5.2, -4.66, -4.32, -4.32, -3.76, -3.29, -2.41, -2.6, -1.84, -0.93, -1.02, -0.98, 0.0, 0.0, 0.0, 0.0, 0.0, 0.0, 0.0, 1.54, 1.47, 1.75, 3.32, 3.8, 5.36, 6.32, 8.4, 9.26, 8.63, 10.41, 9.33, 9.83, 9.2, 6.95, 8.93, 8.55, 9.3, 11.03, 0.0, -12.96, -12.39, 0.0, 9.2, 12.74, 5.35, 0.0, -4.81, -6.6, 0.0, 4.38, 4.24, 3.85, 2.72, 1.58, 1.63, 1.47, 1.42, 0.0, 0.0, 0.0, 0.0, -2.63, -9.17, -12.96, -12.96, -12.54, -12.54, -12.27, -12.27, -12.27, -11.8, -11.8, -11.8, -11.8, -11.8, -11.28, -11.28, -11.28, -10.94, -10.94, -10.69, -10.69, -10.4, -10.4, -9.8, -9.5, -9.21, -8.87, -8.87, -8.23, -7.96, -7.32, -6.92, -6.5, -6.27, -6.08, -5.86, -5.44, -4.95, -5.2, -4.66, -4.32, -3.91, -3.07, -3.29, -2.6, -1.76, -1.84, -1.84, -1.92, -1.92, 0.0, 0.0, 0.0, 0.0, 0.0, 0.0, 1.26, 1.47, 1.4, 3.15, 3.6, 3.8, 4.0, 6.32, 9.39, 8.6, 7.81, 9.33, 9.83, 9.33, 8.55, 8.55, 8.55, 9.3, 11.03, 0.0, -12.96, -12.52, -13.99, -3.9, 0.0, 4.83, 5.52, 6.22, 9.66, 8.0, 6.88, 4.03, 1.9, 1.25, 0.0, 0.0, 0.0, -1.3, -1.3, -1.3, -1.38, -1.48, -5.8, -5.8, -5.8, -5.8, -12.16, -12.16, -11.9, -11.72, -11.72, -11.72, -11.8, -11.44, -11.23, -11.23, -10.94, -10.94, -10.94, -10.94, -10.69, -10.69, -10.69, -10.4, -9.8, -9.5, -9.5, -9.19, -8.87, -8.23, -7.96, -7.59, -7.59, -6.94, -6.94, -6.53, -5.86, -5.86, -5.2, -5.44, -4.95, -4.66, -4.32, -4.32, -3.91, -3.29, -3.29, -2.6, -2.6, -1.92, -1.92, -2.0, -0.97, 0.0, 0.0, 0.0, 0.0, 0.0, 0.0, 1.26, 1.4, 1.67, 3.6, 3.6, 3.8, 4.0, 8.67, 8.85, 8.6, 10.41, 9.33, 9.33, 8.55, 8.93, 7.27, 7.9, 7.9, -0.0, -11.62, -12.3, -12.45, -10.75, -5.65, 0.0, 7.48, 11.53, 13.39, 13.14, 8.07, 5.52, 2.72, 1.25, 0.0, -3.93, -5.02, -4.11, -3.98, -3.98, -4.38, -4.98, -12.96, -0.0, -0.0, -0.0, -12.16, -12.16, -12.16, -11.72, -11.72, -11.72, -11.44, -11.23, -11.23, -11.23, -11.23, -10.94, -10.94, -10.69, -10.69, -10.36, -10.09, -10.09, -9.8, -9.5, -9.19, -8.87, -8.58, -8.24, -7.96, -7.6, -7.6, -7.22, -6.94, -6.29, -6.29, -5.86, -5.2, -5.2, -4.95, -4.66, -4.66, -4.32, -3.68, -3.76, -3.29, -3.16, -2.6, -2.6, -2.82, -1.92, -1.92, -0.93, -0.98, 0.0, 0.0, 0.0, 0.0, 0.0, 1.26, 1.67, 3.15, 2.99, 1.58, 2.06, 7.07, 8.94, 8.67, 8.17, 10.18, 9.33, 8.18, 6.64, 6.17, 5.95, 8.22, 7.27, -11.18, -11.87, -9.48, -6.4, -2.65, 0.0, 5.87, 12.93, 17.38, 16.63, 11.6, 6.2, 4.67, 3.3, 0.0, -4.66, -7.32, -6.0, -4.52, -3.96, -6.67, -11.6, -4.1, -3.04, -3.04, -3.04, -12.16, -12.16, -11.99, -11.72, -11.72, -11.72, -11.52, -11.23, -11.23, -11.23, -11.23, -10.69, -10.69, -10.36, -10.36, -10.09, -10.09, -10.09, -9.19, -9.19, -8.87, -8.58, -8.24, -7.96, -7.6, -7.6, -7.22, -7.22, -7.22, -6.56, -6.56, -6.12, -5.89, -5.44, -4.95, -4.95, -4.66, -4.66, -4.32, -3.68, -3.76, -3.29, -3.29, -3.39, -2.6, -2.82, -1.92, -1.84, -1.02, -0.98, -1.09, 0.0, 0.0, 0.0, 0.0, 1.4, 1.4, 1.58, 1.58, 1.58, 4.71, 8.49, 8.87, 9.11, 8.48, 9.2, 8.8, 4.96, 5.46, 5.7, 3.25, -0.0, 0.0, -12.52, -6.0, 0.0, 0.0, 1.78, 4.34, 10.32, 17.28, 16.47, 11.27, 8.85, 9.0, 6.14, 0.0, -3.9, -10.12, -9.8, 0.0, -3.82, -11.2, -5.6, -0.0, -0.0, -0.0, -0.0, -12.16, -12.16, -11.99, -11.72, -11.35, -11.16, -11.16, -10.88, -10.88, -10.88, -10.65, -10.65, -10.36, -10.36, -10.09, -10.09, -9.77, -9.48, -9.19, -9.19, -8.58, -8.24, -7.96, -7.6, -7.33, -7.89, -7.51, -7.51, -7.09, -6.84, -6.56, -6.12, -5.89, -5.44, -5.44, -4.95, -4.66, -4.66, -4.66, -4.15, -4.4, -3.76, -4.01, -3.29, -3.39, -2.6, -2.82, -1.84, -2.02, -1.02, -1.09, -1.04, 0.0, 0.0, 0.0, 0.0, 1.4, 1.32, 1.32, 1.58, 3.6, 8.33, 8.41, 8.67, 8.6, 9.33, 8.4, 6.64, 3.11, -0.0, -0.0, -0.0, -0.0, 0.0, 0.0, 0.0, 0.0, 2.15, 7.2, 10.76, 12.47, 12.13, 11.92, 13.75, 12.57, 10.17, 15.65, -0.0, 3.36, 10.79, 11.87, 12.52, -12.07, -5.4, -0.0, -0.0, -0.0, -0.0, -12.16, -12.16, -11.99, -11.62, -11.16, -11.16, -11.16, -10.88, -10.65, -10.65, -10.65, -10.65, -9.77, -9.77, -9.77, -9.77, -9.48, -9.48, -9.48, -8.58, -8.58, -8.24, -7.96, -7.6, -7.33, -7.89, -7.51, -7.51, -6.84, -6.84, -6.84, -6.16, -6.16, -5.7, -5.7, -5.2, -5.2, -4.48, -4.48, -4.73, -4.15, -4.4, -3.76, -4.01, -3.29, -3.39, -2.82, -2.71, -2.02, -2.02, -1.09, -1.09, -1.16, 0.0, 0.0, 0.0, 0.0, 1.32, 1.32, 1.32, 1.84, 7.81, 8.38, 8.37, 8.22, 9.75, 9.33, 8.4, 4.4, -0.0, -0.0, -0.0, -0.0, -0.0, 0.0, 0.0, 0.0, 6.4, 10.43, 12.02, 9.92, 9.54, 14.94, 18.55, 17.33, 13.91, 3.69, -0.0, 10.37, 11.62, 11.2, 6.7, -0.0, -0.0, -0.0, -0.0, -0.0, -0.0, -12.03, -12.03, -11.88, -11.62, -11.44, -11.16, -11.16, -10.59, -10.3, -10.3, -10.3, -10.06, -10.06, -9.77, -9.77, -9.77, -9.48, -9.48, -9.48, -8.87, -8.58, -7.96, -7.96, -7.6, -7.61, -7.61, -7.24, -7.24, -6.84, -6.84, -6.4, -6.16, -6.16, -5.7, -5.98, -5.98, -5.0, -5.0, -4.48, -4.48, -4.73, -4.15, -4.4, -4.01, -4.01, -3.53, -3.39, -2.82, -2.95, -2.02, -2.13, -1.09, -1.16, -1.26, 0.0, 0.0, 0.0, 0.0, 0.0, 1.32, 1.58, 6.32, 7.94, 7.37, 6.52, 6.32, 7.44, 8.91, 6.64, 6.95, 4.4, -0.0, -0.0, -0.0, 0.0, 0.0, 9.48, 11.99, 11.44, 11.33, 10.02, 9.17, 13.53, 17.7, 14.99, 13.13, 2.1, -0.0, 4.32, 10.73, 11.21, 8.22, -0.0, -0.0, -0.0, -0.0, -0.0, -0.0, -11.88, -11.88, -11.88, -11.24, -11.07, -10.8, -10.59, -10.59, -10.59, -10.3, -10.06, -10.06, -10.06, -9.77, -9.77, -9.77, -9.48, -9.48, -9.48, -8.87, -8.87, -7.96, -7.96, -7.89, -7.61, -7.61, -7.24, -7.24, -7.14, -7.14, -6.45, -6.45, -5.98, -5.75, -5.75, -5.26, -5.26, -5.26, -5.26, -4.48, -4.48, -4.73, -4.4, -4.4, -4.68, -4.01, -3.39, -3.67, -2.95, -2.95, -2.23, -2.13, -1.16, -1.26, 0.0, 0.0, 0.0, 0.0, 0.0, 0.0, 0.0, 4.22, 7.6, 7.4, 6.18, 6.32, 6.32, 8.91, 9.39, 9.33, 8.8, 9.83, 9.83, -0.0, 0.0, 0.0, 0.0, 11.6, 13.15, 11.8, 10.43, 9.44, 11.06, 10.77, 9.17, 16.79, 6.4, -0.0, -0.0, 2.19, 10.4, 11.28, 3.53, -0.0, -0.0, -1.93, -1.93, -1.93, -11.88, -11.75, -11.5, -11.5, -11.07, -11.07, -10.59, -10.59, -10.59, -10.3, -10.3, -10.65, -10.65, -10.09, -9.77, -9.77, -9.77, -9.48, -9.17, -8.87, -8.87, -8.87, -8.24, -7.61, -7.61, -7.61, -7.24, -7.24, -7.14, -6.87, -6.45, -6.45, -5.75, -5.75, -5.75, -5.26, -5.26, -5.26, -5.26, -5.26, -4.73, -4.73, -4.73, -4.4, -4.4, -4.68, -4.13, -3.67, -3.67, -2.95, -3.25, -2.13, -2.39, -1.26, -1.26, 0.0, 0.0, 0.0, 0.0, 0.0, 0.0, 1.84, 7.6, 6.8, 5.37, 3.97, 5.21, 6.64, 8.4, 9.83, 10.28, 10.28, 10.28, 9.83, 11.18, 0.0, 0.0, 12.96, 11.99, 11.53, 10.12, 10.12, 10.12, 5.37, 0.0, 14.54, 16.09, 10.04, -1.76, -2.95, -0.0, 7.9, -0.0, -0.0, -0.0, -2.39, -2.39, -2.39, -11.75, -11.75, -11.5, -11.5, -11.07, -11.07, -10.8, -10.59, -10.94, -10.65, -10.65, -10.65, -10.65, -10.65, -10.06, -9.77, -9.48, -9.17, -9.17, -8.87, -8.87, -8.56, -7.95, -7.61, -7.61, -7.24, -7.24, -6.87, -6.87, -6.87, -6.45, -6.5, -5.75, -5.75, -5.75, -5.26, -5.26, -5.26, -5.26, -5.26, -4.73, -4.73, -4.73, -5.0, -4.4, -4.68, -4.13, -4.13, -3.67, -3.82, -3.25, -3.11, -2.39, -1.11, -1.26, -1.2, 0.0, 0.0, 0.0, 0.0, 0.0, 1.84, 7.37, 7.06, 5.37, 3.77, 2.97, 2.97, -0.0, 6.64, 9.83, 10.28, 7.27, 7.27, 10.28, 0.0, 0.0, 8.85, 9.17, 9.17, 9.48, 9.8, 8.18, 1.81, 2.76, 19.08, 16.54, 12.71, -0.0, -5.45, -5.75, -7.9, -8.22, -3.68, -2.6, -3.25, -3.25, -3.25, -11.75, -11.75, -11.75, -11.5, -11.5, -11.07, -11.16, -11.16, -10.88, -10.88, -10.88, -10.65, -10.65, -10.06, -10.06, -10.06, -9.46, -9.17, -9.17, -8.87, -8.56, -8.24, -7.95, -7.61, -7.33, -6.97, -7.26, -6.87, -6.87, -6.87, -6.5, -6.5, -6.5, -6.04, -6.04, -5.75, -5.26, -5.26, -5.26, -5.54, -5.54, -4.73, -4.73, -4.73, -4.4, -4.68, -4.68, -4.13, -4.44, -3.82, -2.95, -3.11, -2.28, -2.17, -1.26, -1.2, -1.2, 0.0, 0.0, 0.0, 1.25, 3.4, 6.32, 7.37, 4.75, 3.77, 2.09, -0.0, -0.0, -0.0, -0.0, 0.0, 0.0, 0.0, 0.0, 10.73, 11.62, 10.8, 8.85, 8.85, 10.79, 9.8, 7.58, 8.34, 9.96, 18.21, 14.75, 12.96, 10.8, -6.45, -6.5, -10.0, -10.6, -7.9, -3.39, -3.25, -3.25, -3.25, -11.75, -11.75, -11.75, -11.5, -11.88, -11.62, -11.35, -11.16, -11.16, -10.88, -10.65, -10.3, -10.3, -10.06, -9.72, -9.72, -9.46, -9.46, -9.17, -8.56, -8.56, -7.95, -7.95, -7.33, -7.33, -7.26, -7.26, -6.87, -6.61, -6.61, -6.5, -6.5, -6.5, -6.04, -6.04, -6.04, -5.54, -5.26, -5.54, -5.54, -5.54, -5.0, -5.0, -5.0, -4.4, -4.4, -4.68, -4.13, -4.13, -3.67, -3.82, -2.95, -2.04, -2.28, -2.17, -1.2, -1.2, -1.2, 0.0, 0.0, 1.58, 3.4, 4.22, 7.6, 5.69, 3.6, 2.21, 1.14, -0.0, -0.0, -0.0, -4.8, -4.8, -7.27, -0.0, 0.0, 10.73, 11.62, 5.6, 8.85, 8.85, 11.16, 9.95, 13.39, 12.19, 15.99, 13.44, 10.73, 9.6, -2.19, -7.27, -9.97, -11.03, -10.0, -7.9, -4.4, -4.4, -4.4, -11.75, -11.75, -11.75, -11.88, -11.88, -11.62, -11.62, -11.16, -11.16, -10.59, -10.59, -10.59, -10.01, -9.72, -9.72, -9.72, -9.46, -9.13, -8.85, -8.85, -8.53, -8.24, -8.24, -7.61, -7.26, -7.26, -6.98, -6.61, -6.61, -6.61, -6.5, -6.5, -6.5, -6.04, -6.04, -6.04, -5.54, -5.54, -5.54, -5.54, -5.54, -5.0, -4.8, -4.8, -4.8, -4.23, -4.5, -3.85, -4.13, -4.44, -3.51, -3.82, -2.97, -2.04, -2.17, -2.17, -1.2, -1.2, 0.0, 0.0, 0.0, 1.95, 2.54, 3.6, 8.05, 3.6, 2.69, 1.2, -0.0, -0.0, -0.0, -0.0, -4.8, -7.27, 0.0, 10.28, 10.28, 0.0, 0.0, 8.53, 8.85, 7.93, 9.2, 8.53, 4.7, 0.0, 11.38, 11.03, 11.18, 5.0, -8.22, -9.67, -11.03, -11.62, -10.6, -7.27, -7.27, -7.27, -11.75, -11.75, -11.75, -11.5, -11.5, -11.88, -11.07, -11.07, -10.8, -10.59, -10.59, -10.23, -10.01, -10.01, -9.72, -9.46, -9.13, -9.13, -8.85, -8.53, -8.24, -8.24, -7.93, -7.61, -7.26, -6.98, -6.98, -6.61, -6.61, -6.2, -6.5, -6.5, -6.5, -5.8, -5.8, -5.8, -5.54, -5.54, -5.54, -5.54, -5.0, -4.8, -4.8, -5.09, -5.09, -4.5, -4.5, -4.5, -4.13, -4.13, -3.51, -3.65, -2.97, -2.97, -2.17, -2.17, -2.33, -1.2, -1.4, 0.0, 0.0, 0.0, 0.0, 3.6, 5.69, 6.01, 2.06, 1.2, -0.0, -0.0, -0.0, -0.0, -0.0, -0.0, 9.83, 9.83, 9.83, 0.0, 0.0, 0.0, 0.0, 0.0, 0.0, 0.0, 2.58, -5.44, -0.0, 10.75, 11.18, 11.18, -8.22, -9.67, -11.84, -11.62, -11.18, -7.9, -7.9, -7.9, -11.75, -11.75, -11.75, -11.75, -11.5, -11.34, -11.34, -11.07, -10.87, -10.59, -10.23, -10.23, -10.01, -10.01, -10.01, -9.42, -9.13, -9.13, -8.53, -8.53, -8.24, -7.93, -7.93, -7.32, -6.98, -6.98, -6.98, -6.61, -6.61, -6.24, -6.24, -6.24, -6.24, -6.11, -6.11, -5.8, -5.32, -5.54, -5.54, -5.54, -5.0, -4.8, -5.09, -5.09, -5.09, -4.5, -4.5, -4.5, -4.13, -4.13, -4.25, -3.65, -2.83, -2.97, -2.83, -2.17, -2.06, -2.33, -1.4, 0.0, 0.0, 0.0, 0.0, 0.0, 0.0, 0.0, -0.0, 2.17, -0.0, -0.0, -0.0, -0.0, -0.0, -0.0, 0.0, 0.0, 0.0, 0.0, 0.0, 0.0, 0.0, -9.48, -3.58, -2.47, 0.0, -3.44, -13.91, -0.0, 8.85, 0.0, 0.0, -10.4, -11.95, -12.07, -11.62, -11.62, -11.62, -11.62, -11.36, -11.36, -11.36, -11.22, -11.22, -10.96, -10.96, -10.96, -10.51, -10.51, -10.23, -10.23, -10.01, -10.01, -9.66, -9.42, -9.42, -8.82, -8.82, -8.82, -8.53, -8.22, -8.22, -7.61, -6.98, -6.98, -6.98, -6.61, -6.34, -6.63, -6.24, -6.24, -5.8, -6.11, -6.11, -6.11, -5.32, -5.32, -5.32, -5.32, -4.8, -4.8, -5.09, -5.09, -5.09, -4.5, -4.5, -4.8, -4.13, -4.13, -3.95, -3.36, -3.65, -2.7, -2.83, -2.83, -2.06, -2.33, -1.4, -1.4, 0.0, 0.0, 0.0, 0.0, 0.0, 0.0, 0.0, 0.0, -0.0, -0.0, -2.28, -3.53, -0.0, 0.0, 0.0, 0.0, 0.0, 0.0, 0.0, 0.0, 0.0, -9.48, -6.6, -4.54, -1.89, 0.0, -7.3, -16.09, -10.12, -13.41, -8.85, -12.07, -12.52, -12.96, -12.07, -12.07, -12.07, -12.07, -11.36, -11.36, -11.22, -11.22, -11.22, -11.22, -10.96, -10.96, -10.51, -10.51, -10.23, -10.01, -10.01, -9.66, -9.42, -9.42, -9.08, -8.82, -8.82, -8.82, -8.5, -8.22, -8.22, -7.9, -7.6, -7.27, -7.27, -6.9, -6.63, -6.63, -6.24, -6.24, -5.8, -6.11, -6.11, -6.11, -5.62, -5.32, -5.32, -5.32, -4.8, -5.09, -5.09, -5.09, -5.09, -4.5, -4.8, -4.8, -4.13, -4.13, -4.25, -3.36, -3.36, -3.49, -2.7, -2.83, -3.14, -2.06, -2.33, -1.4, -1.4, 0.0, 0.0, 0.0, 0.0, 0.0, 0.0, 0.0, -0.0, -0.0, -0.0, -0.0, -0.0, 0.0, 0.0, 0.0, 0.0, 0.0, 0.0, 0.0, 0.0, -5.8, -6.4, -4.95, -1.74, 0.0, 0.0, -3.9, -10.12, -12.39, -10.41, -8.85, -11.45, -12.52, -12.14, -5.4, -5.4, -5.4, -11.47, -11.47, -11.22, -10.83, -10.83, -10.83, -10.83, -10.96, -10.79, -10.51, -10.51, -10.01, -9.66, -9.66, -9.42, -9.08, -9.08, -8.82, -8.82, -8.5, -8.5, -8.22, -8.22, -7.9, -7.6, -7.6, -7.27, -7.27, -6.63, -6.63, -6.24, -6.24, -5.8, -6.11, -6.11, -6.11, -6.11, -5.62, -5.32, -5.62, -5.09, -5.09, -5.09, -5.09, -5.09, -4.8, -4.8, -4.8, -4.13, -3.95, -4.25, -4.07, -3.36, -3.49, -3.49, -2.83, -2.83, -3.14, -2.46, -2.33, -1.4, -1.4, -1.67, 0.0, 0.0, 0.0, 0.0, 0.0, 0.0, 0.0, -0.0, -0.0, -0.0, -0.0, -0.0, -0.0, 0.0, 0.0, 0.0, 0.0, 0.0, -5.8, -6.2, -4.66, -1.7, 0.0, 1.85, 1.87, 0.0, 0.0, -3.36, -7.44, -7.19, -10.41, -8.85, 0.0, 0.0, 0.0, -11.47, -11.47, -11.22, -10.83, -10.83, -10.83, -10.83, -10.96, -10.79, -10.51, -10.51, -10.01, -9.66, -9.66, -9.42, -9.08, -9.08, -8.82, -8.82, -8.5, -8.5, -8.22, -8.22, -7.9, -7.6, -7.6, -7.27, -7.27, -6.63, -6.63, -6.24, -6.24, -5.8, -6.11, -6.11, -6.11, -6.11, -5.62, -5.32, -5.62, -5.09, -5.09, -5.09, -5.09, -5.09, -4.8, -4.8, -4.8, -4.13, -3.95, -4.25, -4.07, -3.36, -3.49, -3.49, -2.83, -2.83, -3.14, -2.46, -2.33, -1.4, -1.4, -1.67, 0.0, 0.0, 0.0, 0.0, 0.0, 0.0, 0.0, -0.0, -0.0, -0.0, -0.0, -0.0, -0.0, 0.0, 0.0, 0.0, 0.0, 0.0, -5.6, -6.0, -4.52, -1.6, 0.0, 1.69, 4.4, 4.66, 4.23, 1.68, 0.0, -2.72, -6.0, -5.6, 0.0, 0.0, 0.0]}]